
Distance (Route):
Temperature : 0°C
Humidity : 0%
Pressure : 0hPa| Receiver | Frames | First received | Last received |
|---|---|---|---|
| EA3GEO | 787 | 2026-09-01 23:00:45 | 2026-09-02 00:35:06 |
| Receiver | Date | Latitude | Longitude | Direction | Speed | Altitude | Climb | Temperature | Humidity | Pressure | Voltage | Killtimer | Uptime | BKT | XDATA |
|---|---|---|---|---|---|---|---|---|---|---|---|---|---|---|---|
| EA3GEO | 2026-09-02 00:35:06 | 41.43975 | 2.98514 | 72° | 16km/h | 150m | -8.2m/s | 0°C | 0% | 0hPa | 0V | 00:00:00 | 00:00:00 | 00:00:00 | |
| EA3GEO | 2026-09-02 00:35:01 | 41.43965 | 2.98487 | 52° | 20km/h | 189m | -9.5m/s | 0°C | 0% | 0hPa | 0V | 00:00:00 | 00:00:00 | 00:00:00 | |
| EA3GEO | 2026-09-02 00:34:56 | 41.43954 | 2.98459 | 56° | 16km/h | 231m | -7.4m/s | 0°C | 0% | 0hPa | 0V | 00:00:00 | 00:00:00 | 00:00:00 | |
| EA3GEO | 2026-09-02 00:34:50 | 41.43942 | 2.98425 | 61° | 15km/h | 282m | -8.1m/s | 0°C | 0% | 0hPa | 0V | 00:00:00 | 00:00:00 | 00:00:00 | |
| EA3GEO | 2026-09-02 00:34:44 | 41.43930 | 2.98389 | 60° | 18km/h | 336m | -8.3m/s | 0°C | 0% | 0hPa | 0V | 00:00:00 | 00:00:00 | 00:00:00 | |
| EA3GEO | 2026-09-02 00:34:38 | 41.43915 | 2.98354 | 60° | 18km/h | 388m | -7.7m/s | 0°C | 0% | 0hPa | 0V | 00:00:00 | 00:00:00 | 00:00:00 | |
| EA3GEO | 2026-09-02 00:34:33 | 41.43901 | 2.98324 | 60° | 18km/h | 435m | -9.3m/s | 0°C | 0% | 0hPa | 0V | 00:00:00 | 00:00:00 | 00:00:00 | |
| EA3GEO | 2026-09-02 00:34:27 | 41.43889 | 2.98289 | 65° | 18km/h | 489m | -10.6m/s | 0°C | 0% | 0hPa | 0V | 00:00:00 | 00:00:00 | 00:00:00 | |
| EA3GEO | 2026-09-02 00:34:22 | 41.43880 | 2.98260 | 58° | 16km/h | 535m | -9.6m/s | 0°C | 0% | 0hPa | 0V | 00:00:00 | 00:00:00 | 00:00:00 | |
| EA3GEO | 2026-09-02 00:34:17 | 41.43868 | 2.98232 | 62° | 20km/h | 579m | -6.6m/s | 0°C | 0% | 0hPa | 0V | 00:00:00 | 00:00:00 | 00:00:00 | |
| EA3GEO | 2026-09-02 00:34:11 | 41.43853 | 2.98197 | 63° | 22km/h | 633m | -9.9m/s | 0°C | 0% | 0hPa | 0V | 00:00:00 | 00:00:00 | 00:00:00 | |
| EA3GEO | 2026-09-02 00:34:05 | 41.43841 | 2.98161 | 72° | 16km/h | 689m | -7.3m/s | 0°C | 0% | 0hPa | 0V | 00:00:00 | 00:00:00 | 00:00:00 | |
| EA3GEO | 2026-09-02 00:34:00 | 41.43830 | 2.98133 | 75° | 11km/h | 732m | -8.9m/s | 0°C | 0% | 0hPa | 0V | 00:00:00 | 00:00:00 | 00:00:00 | |
| EA3GEO | 2026-09-02 00:33:54 | 41.43820 | 2.98104 | 75° | 16km/h | 778m | -7.6m/s | 0°C | 0% | 0hPa | 0V | 00:00:00 | 00:00:00 | 00:00:00 | |
| EA3GEO | 2026-09-02 00:33:49 | 41.43816 | 2.98079 | 82° | 11km/h | 824m | -8.2m/s | 0°C | 0% | 0hPa | 0V | 00:00:00 | 00:00:00 | 00:00:00 | |
| EA3GEO | 2026-09-02 00:33:37 | 41.43801 | 2.98030 | 78° | 13km/h | 929m | -8.5m/s | 0°C | 0% | 0hPa | 0V | 00:00:00 | 00:00:00 | 00:00:00 | |
| EA3GEO | 2026-09-02 00:33:31 | 41.43791 | 2.98007 | 67° | 11km/h | 982m | -8.2m/s | 0°C | 0% | 0hPa | 0V | 00:00:00 | 00:00:00 | 00:00:00 | |
| EA3GEO | 2026-09-02 00:33:26 | 41.43783 | 2.97985 | 64° | 15km/h | 1027m | -7.3m/s | 0°C | 0% | 0hPa | 0V | 00:00:00 | 00:00:00 | 00:00:00 | |
| EA3GEO | 2026-09-02 00:33:21 | 41.43775 | 2.97959 | 60° | 15km/h | 1071m | -7.6m/s | 0°C | 0% | 0hPa | 0V | 00:00:00 | 00:00:00 | 00:00:00 | |
| EA3GEO | 2026-09-02 00:33:15 | 41.43768 | 2.97931 | 81° | 15km/h | 1123m | -8.8m/s | 0°C | 0% | 0hPa | 0V | 00:00:00 | 00:00:00 | 00:00:00 | |
| EA3GEO | 2026-09-02 00:33:10 | 41.43766 | 2.97915 | 96° | 11km/h | 1166m | -8.4m/s | 0°C | 0% | 0hPa | 0V | 00:00:00 | 00:00:00 | 00:00:00 | |
| EA3GEO | 2026-09-02 00:33:06 | 41.43768 | 2.97902 | 128° | 5km/h | 1209m | -8.6m/s | 0°C | 0% | 0hPa | 0V | 00:00:00 | 00:00:00 | 00:00:00 | |
| EA3GEO | 2026-09-02 00:32:59 | 41.43769 | 2.97895 | 130° | 4km/h | 1261m | -9.1m/s | 0°C | 0% | 0hPa | 0V | 00:00:00 | 00:00:00 | 00:00:00 | |
| EA3GEO | 2026-09-02 00:32:53 | 41.43775 | 2.97893 | 207° | 5km/h | 1316m | -9.6m/s | 0°C | 0% | 0hPa | 0V | 00:00:00 | 00:00:00 | 00:00:00 | |
| EA3GEO | 2026-09-02 00:32:47 | 41.43783 | 2.97897 | 200° | 7km/h | 1370m | -9.4m/s | 0°C | 0% | 0hPa | 0V | 00:00:00 | 00:00:00 | 00:00:00 | |
| EA3GEO | 2026-09-02 00:32:41 | 41.43791 | 2.97899 | 205° | 7km/h | 1423m | -7.5m/s | 0°C | 0% | 0hPa | 0V | 00:00:00 | 00:00:00 | 00:00:00 | |
| EA3GEO | 2026-09-02 00:32:35 | 41.43798 | 2.97903 | 186° | 7km/h | 1473m | -7.6m/s | 0°C | 0% | 0hPa | 0V | 00:00:00 | 00:00:00 | 00:00:00 | |
| EA3GEO | 2026-09-02 00:32:29 | 41.43803 | 2.97908 | 222° | 5km/h | 1526m | -9.6m/s | 0°C | 0% | 0hPa | 0V | 00:00:00 | 00:00:00 | 00:00:00 | |
| EA3GEO | 2026-09-02 00:32:23 | 41.43805 | 2.97912 | 120° | 5km/h | 1584m | -10.3m/s | 0°C | 0% | 0hPa | 0V | 00:00:00 | 00:00:00 | 00:00:00 | |
| EA3GEO | 2026-09-02 00:32:17 | 41.43808 | 2.97903 | 105° | 5km/h | 1635m | -8.0m/s | 0°C | 0% | 0hPa | 0V | 00:00:00 | 00:00:00 | 00:00:00 | |
| EA3GEO | 2026-09-02 00:32:12 | 41.43812 | 2.97885 | 111° | 18km/h | 1679m | -8.9m/s | 0°C | 0% | 0hPa | 0V | 00:00:00 | 00:00:00 | 00:00:00 | |
| EA3GEO | 2026-09-02 00:32:06 | 41.43819 | 2.97847 | 99° | 27km/h | 1732m | -8.7m/s | 0°C | 0% | 0hPa | 0V | 00:00:00 | 00:00:00 | 00:00:00 | |
| EA3GEO | 2026-09-02 00:32:01 | 41.43822 | 2.97801 | 98° | 29km/h | 1775m | -8.9m/s | 0°C | 0% | 0hPa | 0V | 00:00:00 | 00:00:00 | 00:00:00 | |
| EA3GEO | 2026-09-02 00:31:56 | 41.43823 | 2.97750 | 83° | 31km/h | 1821m | -10.7m/s | 0°C | 0% | 0hPa | 0V | 00:00:00 | 00:00:00 | 00:00:00 | |
| EA3GEO | 2026-09-02 00:31:51 | 41.43819 | 2.97691 | 88° | 35km/h | 1864m | -10.1m/s | 0°C | 0% | 0hPa | 0V | 00:00:00 | 00:00:00 | 00:00:00 | |
| EA3GEO | 2026-09-02 00:31:45 | 41.43812 | 2.97622 | 80° | 33km/h | 1921m | -9.5m/s | 0°C | 0% | 0hPa | 0V | 00:00:00 | 00:00:00 | 00:00:00 | |
| EA3GEO | 2026-09-02 00:31:39 | 41.43802 | 2.97547 | 83° | 33km/h | 1983m | -8.7m/s | 0°C | 0% | 0hPa | 0V | 00:00:00 | 00:00:00 | 00:00:00 | |
| EA3GEO | 2026-09-02 00:31:32 | 41.43795 | 2.97483 | 85° | 29km/h | 2038m | -7.9m/s | 0°C | 0% | 0hPa | 0V | 00:00:00 | 00:00:00 | 00:00:00 | |
| EA3GEO | 2026-09-02 00:31:27 | 41.43789 | 2.97433 | 82° | 31km/h | 2085m | -8.1m/s | 0°C | 0% | 0hPa | 0V | 00:00:00 | 00:00:00 | 00:00:00 | |
| EA3GEO | 2026-09-02 00:31:21 | 41.43783 | 2.97371 | 84° | 27km/h | 2137m | -9.9m/s | 0°C | 0% | 0hPa | 0V | 00:00:00 | 00:00:00 | 00:00:00 | |
| EA3GEO | 2026-09-02 00:31:15 | 41.43779 | 2.97313 | 81° | 26km/h | 2191m | -9.5m/s | 0°C | 0% | 0hPa | 0V | 00:00:00 | 00:00:00 | 00:00:00 | |
| EA3GEO | 2026-09-02 00:31:09 | 41.43775 | 2.97260 | 97° | 26km/h | 2248m | -8.8m/s | 0°C | 0% | 0hPa | 0V | 00:00:00 | 00:00:00 | 00:00:00 | |
| EA3GEO | 2026-09-02 00:31:03 | 41.43780 | 2.97207 | 102° | 24km/h | 2304m | -8.1m/s | 0°C | 0% | 0hPa | 0V | 00:00:00 | 00:00:00 | 00:00:00 | |
| EA3GEO | 2026-09-02 00:30:57 | 41.43786 | 2.97156 | 98° | 29km/h | 2357m | -10.0m/s | 0°C | 0% | 0hPa | 0V | 00:00:00 | 00:00:00 | 00:00:00 | |
| EA3GEO | 2026-09-02 00:30:52 | 41.43793 | 2.97112 | 106° | 29km/h | 2403m | -9.3m/s | 0°C | 0% | 0hPa | 0V | 00:00:00 | 00:00:00 | 00:00:00 | |
| EA3GEO | 2026-09-02 00:30:47 | 41.43799 | 2.97067 | 97° | 27km/h | 2451m | -7.4m/s | 0°C | 0% | 0hPa | 0V | 00:00:00 | 00:00:00 | 00:00:00 | |
| EA3GEO | 2026-09-02 00:30:42 | 41.43804 | 2.97022 | 95° | 26km/h | 2499m | -9.1m/s | 0°C | 0% | 0hPa | 0V | 00:00:00 | 00:00:00 | 00:00:00 | |
| EA3GEO | 2026-09-02 00:30:36 | 41.43809 | 2.96972 | 93° | 24km/h | 2554m | -9.1m/s | 0°C | 0% | 0hPa | 0V | 00:00:00 | 00:00:00 | 00:00:00 | |
| EA3GEO | 2026-09-02 00:30:30 | 41.43807 | 2.96918 | 85° | 26km/h | 2610m | -10.7m/s | 0°C | 0% | 0hPa | 0V | 00:00:00 | 00:00:00 | 00:00:00 | |
| EA3GEO | 2026-09-02 00:30:25 | 41.43803 | 2.96871 | 74° | 27km/h | 2658m | -9.9m/s | 0°C | 0% | 0hPa | 0V | 00:00:00 | 00:00:00 | 00:00:00 | |
| EA3GEO | 2026-09-02 00:30:19 | 41.43796 | 2.96814 | 74° | 29km/h | 2712m | -9.5m/s | 0°C | 0% | 0hPa | 0V | 00:00:00 | 00:00:00 | 00:00:00 | |
| EA3GEO | 2026-09-02 00:30:14 | 41.43788 | 2.96768 | 82° | 27km/h | 2756m | -9.2m/s | 0°C | 0% | 0hPa | 0V | 00:00:00 | 00:00:00 | 00:00:00 | |
| EA3GEO | 2026-09-02 00:30:09 | 41.43780 | 2.96720 | 91° | 26km/h | 2807m | -8.2m/s | 0°C | 0% | 0hPa | 0V | 00:00:00 | 00:00:00 | 00:00:00 | |
| EA3GEO | 2026-09-02 00:30:03 | 41.43772 | 2.96663 | 70° | 31km/h | 2866m | -11.7m/s | 0°C | 0% | 0hPa | 0V | 00:00:00 | 00:00:00 | 00:00:00 | |
| EA3GEO | 2026-09-02 00:29:57 | 41.43758 | 2.96603 | 73° | 33km/h | 2924m | -8.7m/s | 0°C | 0% | 0hPa | 0V | 00:00:00 | 00:00:00 | 00:00:00 | |
| EA3GEO | 2026-09-02 00:29:51 | 41.43747 | 2.96541 | 79° | 29km/h | 2978m | -7.9m/s | 0°C | 0% | 0hPa | 0V | 00:00:00 | 00:00:00 | 00:00:00 | |
| EA3GEO | 2026-09-02 00:29:46 | 41.43739 | 2.96493 | 76° | 29km/h | 3024m | -9.5m/s | 0°C | 0% | 0hPa | 0V | 00:00:00 | 00:00:00 | 00:00:00 | |
| EA3GEO | 2026-09-02 00:29:40 | 41.43730 | 2.96436 | 90° | 27km/h | 3078m | -9.6m/s | 0°C | 0% | 0hPa | 0V | 00:00:00 | 00:00:00 | 00:00:00 | |
| EA3GEO | 2026-09-02 00:29:34 | 41.43722 | 2.96382 | 80° | 26km/h | 3135m | -9.1m/s | 0°C | 0% | 0hPa | 0V | 00:00:00 | 00:00:00 | 00:00:00 | |
| EA3GEO | 2026-09-02 00:29:29 | 41.43714 | 2.96338 | 78° | 27km/h | 3180m | -9.5m/s | 0°C | 0% | 0hPa | 0V | 00:00:00 | 00:00:00 | 00:00:00 | |
| EA3GEO | 2026-09-02 00:29:23 | 41.43705 | 2.96282 | 70° | 27km/h | 3239m | -10.1m/s | 0°C | 0% | 0hPa | 0V | 00:00:00 | 00:00:00 | 00:00:00 | |
| EA3GEO | 2026-09-02 00:29:18 | 41.43695 | 2.96235 | 78° | 29km/h | 3288m | -8.1m/s | 0°C | 0% | 0hPa | 0V | 00:00:00 | 00:00:00 | 00:00:00 | |
| EA3GEO | 2026-09-02 00:29:12 | 41.43682 | 2.96178 | 71° | 31km/h | 3345m | -8.7m/s | 0°C | 0% | 0hPa | 0V | 00:00:00 | 00:00:00 | 00:00:00 | |
| EA3GEO | 2026-09-02 00:29:06 | 41.43665 | 2.96116 | 82° | 33km/h | 3404m | -9.5m/s | 0°C | 0% | 0hPa | 0V | 00:00:00 | 00:00:00 | 00:00:00 | |
| EA3GEO | 2026-09-02 00:29:00 | 41.43650 | 2.96047 | 74° | 35km/h | 3463m | -8.8m/s | 0°C | 0% | 0hPa | 0V | 00:00:00 | 00:00:00 | 00:00:00 | |
| EA3GEO | 2026-09-02 00:28:54 | 41.43637 | 2.95976 | 79° | 37km/h | 3521m | -11.1m/s | 0°C | 0% | 0hPa | 0V | 00:00:00 | 00:00:00 | 00:00:00 | |
| EA3GEO | 2026-09-02 00:28:49 | 41.43627 | 2.95916 | 80° | 37km/h | 3568m | -9.6m/s | 0°C | 0% | 0hPa | 0V | 00:00:00 | 00:00:00 | 00:00:00 | |
| EA3GEO | 2026-09-02 00:28:43 | 41.43615 | 2.95842 | 81° | 37km/h | 3628m | -8.1m/s | 0°C | 0% | 0hPa | 0V | 00:00:00 | 00:00:00 | 00:00:00 | |
| EA3GEO | 2026-09-02 00:28:37 | 41.43606 | 2.95767 | 80° | 37km/h | 3686m | -8.6m/s | 0°C | 0% | 0hPa | 0V | 00:00:00 | 00:00:00 | 00:00:00 | |
| EA3GEO | 2026-09-02 00:28:31 | 41.43595 | 2.95690 | 82° | 38km/h | 3748m | -9.8m/s | 0°C | 0% | 0hPa | 0V | 00:00:00 | 00:00:00 | 00:00:00 | |
| EA3GEO | 2026-09-02 00:28:26 | 41.43587 | 2.95626 | 84° | 37km/h | 3793m | -10.6m/s | 0°C | 0% | 0hPa | 0V | 00:00:00 | 00:00:00 | 00:00:00 | |
| EA3GEO | 2026-09-02 00:28:20 | 41.43577 | 2.95552 | 79° | 38km/h | 3850m | -9.6m/s | 0°C | 0% | 0hPa | 0V | 00:00:00 | 00:00:00 | 00:00:00 | |
| EA3GEO | 2026-09-02 00:28:15 | 41.43570 | 2.95489 | 84° | 38km/h | 3899m | -7.5m/s | 0°C | 0% | 0hPa | 0V | 00:00:00 | 00:00:00 | 00:00:00 | |
| EA3GEO | 2026-09-02 00:28:10 | 41.43562 | 2.95428 | 76° | 35km/h | 3947m | -9.8m/s | 0°C | 0% | 0hPa | 0V | 00:00:00 | 00:00:00 | 00:00:00 | |
| EA3GEO | 2026-09-02 00:28:04 | 41.43552 | 2.95359 | 82° | 37km/h | 4004m | -8.6m/s | 0°C | 0% | 0hPa | 0V | 00:00:00 | 00:00:00 | 00:00:00 | |
| EA3GEO | 2026-09-02 00:27:58 | 41.43545 | 2.95290 | 89° | 33km/h | 4061m | -9.7m/s | 0°C | 0% | 0hPa | 0V | 00:00:00 | 00:00:00 | 00:00:00 | |
| EA3GEO | 2026-09-02 00:27:53 | 41.43542 | 2.95233 | 87° | 33km/h | 4109m | -8.6m/s | 0°C | 0% | 0hPa | 0V | 00:00:00 | 00:00:00 | 00:00:00 | |
| EA3GEO | 2026-09-02 00:27:47 | 41.43539 | 2.95167 | 83° | 33km/h | 4168m | -10.2m/s | 0°C | 0% | 0hPa | 0V | 00:00:00 | 00:00:00 | 00:00:00 | |
| EA3GEO | 2026-09-02 00:27:41 | 41.43538 | 2.95099 | 90° | 37km/h | 4224m | -8.9m/s | 0°C | 0% | 0hPa | 0V | 00:00:00 | 00:00:00 | 00:00:00 | |
| EA3GEO | 2026-09-02 00:27:35 | 41.43539 | 2.95027 | 93° | 38km/h | 4282m | -10.1m/s | 0°C | 0% | 0hPa | 0V | 00:00:00 | 00:00:00 | 00:00:00 | |
| EA3GEO | 2026-09-02 00:27:25 | 41.43542 | 2.94897 | 92° | 38km/h | 4379m | -8.4m/s | 0°C | 0% | 0hPa | 0V | 00:00:00 | 00:00:00 | 00:00:00 | |
| EA3GEO | 2026-09-02 00:27:19 | 41.43539 | 2.94814 | 87° | 40km/h | 4439m | -9.2m/s | 0°C | 0% | 0hPa | 0V | 00:00:00 | 00:00:00 | 00:00:00 | |
| EA3GEO | 2026-09-02 00:27:13 | 41.43535 | 2.94733 | 87° | 42km/h | 4500m | -8.7m/s | 0°C | 0% | 0hPa | 0V | 00:00:00 | 00:00:00 | 00:00:00 | |
| EA3GEO | 2026-09-02 00:27:08 | 41.43531 | 2.94665 | 85° | 40km/h | 4551m | -10.8m/s | 0°C | 0% | 0hPa | 0V | 00:00:00 | 00:00:00 | 00:00:00 | |
| EA3GEO | 2026-09-02 00:27:02 | 41.43526 | 2.94580 | 88° | 44km/h | 4611m | -6.9m/s | 0°C | 0% | 0hPa | 0V | 00:00:00 | 00:00:00 | 00:00:00 | |
| EA3GEO | 2026-09-02 00:26:56 | 41.43525 | 2.94489 | 88° | 46km/h | 4669m | -8.6m/s | 0°C | 0% | 0hPa | 0V | 00:00:00 | 00:00:00 | 00:00:00 | |
| EA3GEO | 2026-09-02 00:26:50 | 41.43524 | 2.94400 | 88° | 44km/h | 4730m | -9.4m/s | 0°C | 0% | 0hPa | 0V | 00:00:00 | 00:00:00 | 00:00:00 | |
| EA3GEO | 2026-09-02 00:26:45 | 41.43522 | 2.94325 | 90° | 46km/h | 4780m | -8.0m/s | 0°C | 0% | 0hPa | 0V | 00:00:00 | 00:00:00 | 00:00:00 | |
| EA3GEO | 2026-09-02 00:26:39 | 41.43521 | 2.94233 | 92° | 47km/h | 4837m | -7.5m/s | 0°C | 0% | 0hPa | 0V | 00:00:00 | 00:00:00 | 00:00:00 | |
| EA3GEO | 2026-09-02 00:26:33 | 41.43520 | 2.94137 | 92° | 47km/h | 4895m | -8.8m/s | 0°C | 0% | 0hPa | 0V | 00:00:00 | 00:00:00 | 00:00:00 | |
| EA3GEO | 2026-09-02 00:26:27 | 41.43518 | 2.94035 | 88° | 49km/h | 4955m | -9.1m/s | 0°C | 0% | 0hPa | 0V | 00:00:00 | 00:00:00 | 00:00:00 | |
| EA3GEO | 2026-09-02 00:26:22 | 41.43517 | 2.93946 | 92° | 55km/h | 5003m | -8.4m/s | 0°C | 0% | 0hPa | 0V | 00:00:00 | 00:00:00 | 00:00:00 | |
| EA3GEO | 2026-09-02 00:26:17 | 41.43518 | 2.93854 | 90° | 55km/h | 5048m | -9.2m/s | 0°C | 0% | 0hPa | 0V | 00:00:00 | 00:00:00 | 00:00:00 | |
| EA3GEO | 2026-09-02 00:26:11 | 41.43519 | 2.93744 | 88° | 51km/h | 5104m | -9.8m/s | 0°C | 0% | 0hPa | 0V | 00:00:00 | 00:00:00 | 00:00:00 | |
| EA3GEO | 2026-09-02 00:26:06 | 41.43518 | 2.93658 | 92° | 51km/h | 5152m | -8.2m/s | 0°C | 0% | 0hPa | 0V | 00:00:00 | 00:00:00 | 00:00:00 | |
| EA3GEO | 2026-09-02 00:26:00 | 41.43517 | 2.93560 | 92° | 47km/h | 5210m | -9.4m/s | 0°C | 0% | 0hPa | 0V | 00:00:00 | 00:00:00 | 00:00:00 | |
| EA3GEO | 2026-09-02 00:25:55 | 41.43517 | 2.93480 | 93° | 49km/h | 5260m | -9.4m/s | 0°C | 0% | 0hPa | 0V | 00:00:00 | 00:00:00 | 00:00:00 | |
| EA3GEO | 2026-09-02 00:25:49 | 41.43518 | 2.93386 | 93° | 47km/h | 5320m | -9.1m/s | 0°C | 0% | 0hPa | 0V | 00:00:00 | 00:00:00 | 00:00:00 | |
| EA3GEO | 2026-09-02 00:25:44 | 41.43518 | 2.93308 | 93° | 46km/h | 5368m | -9.2m/s | 0°C | 0% | 0hPa | 0V | 00:00:00 | 00:00:00 | 00:00:00 | |
| EA3GEO | 2026-09-02 00:25:38 | 41.43513 | 2.93215 | 87° | 46km/h | 5432m | -8.6m/s | 0°C | 0% | 0hPa | 0V | 00:00:00 | 00:00:00 | 00:00:00 | |
| EA3GEO | 2026-09-02 00:25:32 | 41.43508 | 2.93121 | 82° | 49km/h | 5489m | -8.9m/s | 0°C | 0% | 0hPa | 0V | 00:00:00 | 00:00:00 | 00:00:00 | |
| EA3GEO | 2026-09-02 00:25:27 | 41.43502 | 2.93042 | 87° | 46km/h | 5538m | -9.4m/s | 0°C | 0% | 0hPa | 0V | 00:00:00 | 00:00:00 | 00:00:00 | |
| EA3GEO | 2026-09-02 00:25:21 | 41.43494 | 2.92949 | 79° | 46km/h | 5596m | -10.9m/s | 0°C | 0% | 0hPa | 0V | 00:00:00 | 00:00:00 | 00:00:00 | |
| EA3GEO | 2026-09-02 00:25:15 | 41.43487 | 2.92858 | 82° | 44km/h | 5656m | -10.4m/s | 0°C | 0% | 0hPa | 0V | 00:00:00 | 00:00:00 | 00:00:00 | |
| EA3GEO | 2026-09-02 00:25:10 | 41.43481 | 2.92782 | 81° | 47km/h | 5707m | -9.5m/s | 0°C | 0% | 0hPa | 0V | 00:00:00 | 00:00:00 | 00:00:00 | |
| EA3GEO | 2026-09-02 00:25:05 | 41.43472 | 2.92702 | 86° | 47km/h | 5758m | -9.6m/s | 0°C | 0% | 0hPa | 0V | 00:00:00 | 00:00:00 | 00:00:00 | |
| EA3GEO | 2026-09-02 00:24:56 | 41.43454 | 2.92561 | 80° | 47km/h | 5848m | -9.4m/s | 0°C | 0% | 0hPa | 0V | 00:00:00 | 00:00:00 | 00:00:00 | |
| EA3GEO | 2026-09-02 00:24:50 | 41.43440 | 2.92467 | 82° | 47km/h | 5912m | -9.8m/s | 0°C | 0% | 0hPa | 0V | 00:00:00 | 00:00:00 | 00:00:00 | |
| EA3GEO | 2026-09-02 00:24:45 | 41.43430 | 2.92389 | 81° | 47km/h | 5966m | -7.8m/s | 0°C | 0% | 0hPa | 0V | 00:00:00 | 00:00:00 | 00:00:00 | |
| EA3GEO | 2026-09-02 00:24:40 | 41.43421 | 2.92309 | 85° | 49km/h | 6015m | -10.2m/s | 0°C | 0% | 0hPa | 0V | 00:00:00 | 00:00:00 | 00:00:00 | |
| EA3GEO | 2026-09-02 00:24:35 | 41.43413 | 2.92227 | 85° | 49km/h | 6068m | -9.2m/s | 0°C | 0% | 0hPa | 0V | 00:00:00 | 00:00:00 | 00:00:00 | |
| EA3GEO | 2026-09-02 00:24:30 | 41.43406 | 2.92146 | 81° | 49km/h | 6120m | -10.2m/s | 0°C | 0% | 0hPa | 0V | 00:00:00 | 00:00:00 | 00:00:00 | |
| EA3GEO | 2026-09-02 00:24:24 | 41.43396 | 2.92048 | 87° | 49km/h | 6185m | -8.8m/s | 0°C | 0% | 0hPa | 0V | 00:00:00 | 00:00:00 | 00:00:00 | |
| EA3GEO | 2026-09-02 00:24:19 | 41.43388 | 2.91968 | 81° | 47km/h | 6236m | -10.4m/s | 0°C | 0% | 0hPa | 0V | 00:00:00 | 00:00:00 | 00:00:00 | |
| EA3GEO | 2026-09-02 00:24:13 | 41.43377 | 2.91875 | 80° | 47km/h | 6300m | -10.3m/s | 0°C | 0% | 0hPa | 0V | 00:00:00 | 00:00:00 | 00:00:00 | |
| EA3GEO | 2026-09-02 00:24:07 | 41.43365 | 2.91780 | 80° | 51km/h | 6359m | -9.2m/s | 0°C | 0% | 0hPa | 0V | 00:00:00 | 00:00:00 | 00:00:00 | |
| EA3GEO | 2026-09-02 00:24:02 | 41.43353 | 2.91700 | 79° | 51km/h | 6412m | -8.8m/s | 0°C | 0% | 0hPa | 0V | 00:00:00 | 00:00:00 | 00:00:00 | |
| EA3GEO | 2026-09-02 00:23:57 | 41.43344 | 2.91623 | 81° | 49km/h | 6466m | -9.0m/s | 0°C | 0% | 0hPa | 0V | 00:00:00 | 00:00:00 | 00:00:00 | |
| EA3GEO | 2026-09-02 00:23:51 | 41.43333 | 2.91527 | 84° | 46km/h | 6526m | -8.7m/s | 0°C | 0% | 0hPa | 0V | 00:00:00 | 00:00:00 | 00:00:00 | |
| EA3GEO | 2026-09-02 00:23:45 | 41.43323 | 2.91435 | 83° | 46km/h | 6589m | -9.9m/s | 0°C | 0% | 0hPa | 0V | 00:00:00 | 00:00:00 | 00:00:00 | |
| EA3GEO | 2026-09-02 00:23:40 | 41.43317 | 2.91356 | 88° | 49km/h | 6639m | -10.4m/s | 0°C | 0% | 0hPa | 0V | 00:00:00 | 00:00:00 | 00:00:00 | |
| EA3GEO | 2026-09-02 00:23:34 | 41.43307 | 2.91258 | 82° | 51km/h | 6705m | -8.7m/s | 0°C | 0% | 0hPa | 0V | 00:00:00 | 00:00:00 | 00:00:00 | |
| EA3GEO | 2026-09-02 00:23:29 | 41.43299 | 2.91173 | 81° | 49km/h | 6754m | -11.5m/s | 0°C | 0% | 0hPa | 0V | 00:00:00 | 00:00:00 | 00:00:00 | |
| EA3GEO | 2026-09-02 00:23:24 | 41.43291 | 2.91093 | 82° | 51km/h | 6808m | -10.6m/s | 0°C | 0% | 0hPa | 0V | 00:00:00 | 00:00:00 | 00:00:00 | |
| EA3GEO | 2026-09-02 00:23:19 | 41.43283 | 2.91016 | 84° | 44km/h | 6858m | -9.6m/s | 0°C | 0% | 0hPa | 0V | 00:00:00 | 00:00:00 | 00:00:00 | |
| EA3GEO | 2026-09-02 00:23:09 | 41.43275 | 2.90845 | 89° | 44km/h | 6974m | -9.6m/s | 0°C | 0% | 0hPa | 0V | 00:00:00 | 00:00:00 | 00:00:00 | |
| EA3GEO | 2026-09-02 00:23:02 | 41.43272 | 2.90753 | 87° | 46km/h | 7037m | -10.8m/s | 0°C | 0% | 0hPa | 0V | 00:00:00 | 00:00:00 | 00:00:00 | |
| EA3GEO | 2026-09-02 00:22:57 | 41.43269 | 2.90674 | 85° | 46km/h | 7092m | -9.8m/s | 0°C | 0% | 0hPa | 0V | 00:00:00 | 00:00:00 | 00:00:00 | |
| EA3GEO | 2026-09-02 00:22:52 | 41.43267 | 2.90593 | 94° | 46km/h | 7145m | -9.5m/s | 0°C | 0% | 0hPa | 0V | 00:00:00 | 00:00:00 | 00:00:00 | |
| EA3GEO | 2026-09-02 00:22:46 | 41.43269 | 2.90490 | 95° | 51km/h | 7210m | -9.2m/s | 0°C | 0% | 0hPa | 0V | 00:00:00 | 00:00:00 | 00:00:00 | |
| EA3GEO | 2026-09-02 00:22:40 | 41.43271 | 2.90384 | 92° | 57km/h | 7277m | -10.7m/s | 0°C | 0% | 0hPa | 0V | 00:00:00 | 00:00:00 | 00:00:00 | |
| EA3GEO | 2026-09-02 00:22:34 | 41.43275 | 2.90275 | 95° | 57km/h | 7344m | -8.2m/s | 0°C | 0% | 0hPa | 0V | 00:00:00 | 00:00:00 | 00:00:00 | |
| EA3GEO | 2026-09-02 00:22:29 | 41.43279 | 2.90178 | 91° | 58km/h | 7397m | -10.6m/s | 0°C | 0% | 0hPa | 0V | 00:00:00 | 00:00:00 | 00:00:00 | |
| EA3GEO | 2026-09-02 00:22:23 | 41.43286 | 2.90060 | 93° | 60km/h | 7469m | -9.6m/s | 0°C | 0% | 0hPa | 0V | 00:00:00 | 00:00:00 | 00:00:00 | |
| EA3GEO | 2026-09-02 00:22:18 | 41.43290 | 2.89958 | 95° | 60km/h | 7523m | -10.7m/s | 0°C | 0% | 0hPa | 0V | 00:00:00 | 00:00:00 | 00:00:00 | |
| EA3GEO | 2026-09-02 00:22:12 | 41.43295 | 2.89837 | 93° | 58km/h | 7587m | -11.6m/s | 0°C | 0% | 0hPa | 0V | 00:00:00 | 00:00:00 | 00:00:00 | |
| EA3GEO | 2026-09-02 00:22:07 | 41.43297 | 2.89736 | 94° | 60km/h | 7645m | -11.2m/s | 0°C | 0% | 0hPa | 0V | 00:00:00 | 00:00:00 | 00:00:00 | |
| EA3GEO | 2026-09-02 00:22:01 | 41.43298 | 2.89608 | 90° | 62km/h | 7717m | -10.8m/s | 0°C | 0% | 0hPa | 0V | 00:00:00 | 00:00:00 | 00:00:00 | |
| EA3GEO | 2026-09-02 00:21:55 | 41.43295 | 2.89476 | 93° | 64km/h | 7789m | -10.4m/s | 0°C | 0% | 0hPa | 0V | 00:00:00 | 00:00:00 | 00:00:00 | |
| EA3GEO | 2026-09-02 00:21:50 | 41.43296 | 2.89364 | 90° | 66km/h | 7839m | -12.1m/s | 0°C | 0% | 0hPa | 0V | 00:00:00 | 00:00:00 | 00:00:00 | |
| EA3GEO | 2026-09-02 00:21:45 | 41.43295 | 2.89249 | 91° | 69km/h | 7900m | -10.2m/s | 0°C | 0% | 0hPa | 0V | 00:00:00 | 00:00:00 | 00:00:00 | |
| EA3GEO | 2026-09-02 00:21:39 | 41.43297 | 2.89108 | 93° | 69km/h | 7971m | -12.0m/s | 0°C | 0% | 0hPa | 0V | 00:00:00 | 00:00:00 | 00:00:00 | |
| EA3GEO | 2026-09-02 00:21:33 | 41.43300 | 2.88964 | 93° | 71km/h | 8037m | -9.9m/s | 0°C | 0% | 0hPa | 0V | 00:00:00 | 00:00:00 | 00:00:00 | |
| EA3GEO | 2026-09-02 00:21:28 | 41.43302 | 2.88841 | 90° | 71km/h | 8094m | -9.9m/s | 0°C | 0% | 0hPa | 0V | 00:00:00 | 00:00:00 | 00:00:00 | |
| EA3GEO | 2026-09-02 00:21:22 | 41.43297 | 2.88693 | 87° | 75km/h | 8163m | -11.7m/s | 0°C | 0% | 0hPa | 0V | 00:00:00 | 00:00:00 | 00:00:00 | |
| EA3GEO | 2026-09-02 00:21:16 | 41.43289 | 2.88545 | 84° | 77km/h | 8228m | -10.0m/s | 0°C | 0% | 0hPa | 0V | 00:00:00 | 00:00:00 | 00:00:00 | |
| EA3GEO | 2026-09-02 00:21:10 | 41.43278 | 2.88393 | 85° | 77km/h | 8296m | -9.4m/s | 0°C | 0% | 0hPa | 0V | 00:00:00 | 00:00:00 | 00:00:00 | |
| EA3GEO | 2026-09-02 00:21:04 | 41.43266 | 2.88241 | 85° | 78km/h | 8357m | -9.6m/s | 0°C | 0% | 0hPa | 0V | 00:00:00 | 00:00:00 | 00:00:00 | |
| EA3GEO | 2026-09-02 00:20:58 | 41.43256 | 2.88082 | 85° | 78km/h | 8428m | -11.2m/s | 0°C | 0% | 0hPa | 0V | 00:00:00 | 00:00:00 | 00:00:00 | |
| EA3GEO | 2026-09-02 00:20:52 | 41.43243 | 2.87918 | 83° | 82km/h | 8495m | -10.3m/s | 0°C | 0% | 0hPa | 0V | 00:00:00 | 00:00:00 | 00:00:00 | |
| EA3GEO | 2026-09-02 00:20:47 | 41.43229 | 2.87775 | 82° | 88km/h | 8551m | -11.4m/s | 0°C | 0% | 0hPa | 0V | 00:00:00 | 00:00:00 | 00:00:00 | |
| EA3GEO | 2026-09-02 00:20:41 | 41.43206 | 2.87600 | 80° | 88km/h | 8628m | -10.4m/s | 0°C | 0% | 0hPa | 0V | 00:00:00 | 00:00:00 | 00:00:00 | |
| EA3GEO | 2026-09-02 00:20:35 | 41.43182 | 2.87424 | 80° | 86km/h | 8697m | -12.3m/s | 0°C | 0% | 0hPa | 0V | 00:00:00 | 00:00:00 | 00:00:00 | |
| EA3GEO | 2026-09-02 00:20:29 | 41.43159 | 2.87249 | 80° | 88km/h | 8768m | -13.0m/s | 0°C | 0% | 0hPa | 0V | 00:00:00 | 00:00:00 | 00:00:00 | |
| EA3GEO | 2026-09-02 00:20:24 | 41.43140 | 2.87100 | 82° | 91km/h | 8831m | -10.7m/s | 0°C | 0% | 0hPa | 0V | 00:00:00 | 00:00:00 | 00:00:00 | |
| EA3GEO | 2026-09-02 00:20:19 | 41.43123 | 2.86951 | 80° | 91km/h | 8886m | -11.1m/s | 0°C | 0% | 0hPa | 0V | 00:00:00 | 00:00:00 | 00:00:00 | |
| EA3GEO | 2026-09-02 00:20:14 | 41.43105 | 2.86797 | 83° | 93km/h | 8948m | -11.0m/s | 0°C | 0% | 0hPa | 0V | 00:00:00 | 00:00:00 | 00:00:00 | |
| EA3GEO | 2026-09-02 00:20:08 | 41.43084 | 2.86608 | 82° | 95km/h | 9016m | -10.5m/s | 0°C | 0% | 0hPa | 0V | 00:00:00 | 00:00:00 | 00:00:00 | |
| EA3GEO | 2026-09-02 00:20:02 | 41.43062 | 2.86418 | 82° | 95km/h | 9091m | -10.4m/s | 0°C | 0% | 0hPa | 0V | 00:00:00 | 00:00:00 | 00:00:00 | |
| EA3GEO | 2026-09-02 00:19:56 | 41.43040 | 2.86225 | 84° | 95km/h | 9162m | -12.2m/s | 0°C | 0% | 0hPa | 0V | 00:00:00 | 00:00:00 | 00:00:00 | |
| EA3GEO | 2026-09-02 00:19:50 | 41.43022 | 2.86032 | 86° | 97km/h | 9235m | -11.8m/s | 0°C | 0% | 0hPa | 0V | 00:00:00 | 00:00:00 | 00:00:00 | |
| EA3GEO | 2026-09-02 00:19:45 | 41.43010 | 2.85869 | 85° | 95km/h | 9296m | -12.0m/s | 0°C | 0% | 0hPa | 0V | 00:00:00 | 00:00:00 | 00:00:00 | |
| EA3GEO | 2026-09-02 00:19:39 | 41.42999 | 2.85676 | 87° | 97km/h | 9370m | -11.0m/s | 0°C | 0% | 0hPa | 0V | 00:00:00 | 00:00:00 | 00:00:00 | |
| EA3GEO | 2026-09-02 00:19:34 | 41.42988 | 2.85511 | 85° | 102km/h | 9427m | -12.1m/s | 0°C | 0% | 0hPa | 0V | 00:00:00 | 00:00:00 | 00:00:00 | |
| EA3GEO | 2026-09-02 00:19:29 | 41.42978 | 2.85343 | 86° | 102km/h | 9484m | -8.7m/s | 0°C | 0% | 0hPa | 0V | 00:00:00 | 00:00:00 | 00:00:00 | |
| EA3GEO | 2026-09-02 00:19:23 | 41.42966 | 2.85143 | 86° | 99km/h | 9541m | -6.4m/s | 0°C | 0% | 0hPa | 0V | 00:00:00 | 00:00:00 | 00:00:00 | |
| EA3GEO | 2026-09-02 00:19:17 | 41.42953 | 2.84944 | 86° | 100km/h | 9587m | -7.3m/s | 0°C | 0% | 0hPa | 0V | 00:00:00 | 00:00:00 | 00:00:00 | |
| EA3GEO | 2026-09-02 00:19:12 | 41.42944 | 2.84777 | 86° | 100km/h | 9620m | -5.8m/s | 0°C | 0% | 0hPa | 0V | 00:00:00 | 00:00:00 | 00:00:00 | |
| EA3GEO | 2026-09-02 00:19:08 | 41.42935 | 2.84613 | 88° | 99km/h | 9649m | -4.9m/s | 0°C | 0% | 0hPa | 0V | 00:00:00 | 00:00:00 | 00:00:00 | |
| EA3GEO | 2026-09-02 00:19:01 | 41.42924 | 2.84417 | 87° | 97km/h | 9688m | -6.0m/s | 0°C | 0% | 0hPa | 0V | 00:00:00 | 00:00:00 | 00:00:00 | |
| EA3GEO | 2026-09-02 00:18:55 | 41.42911 | 2.84224 | 88° | 99km/h | 9736m | -6.3m/s | 0°C | 0% | 0hPa | 0V | 00:00:00 | 00:00:00 | 00:00:00 | |
| EA3GEO | 2026-09-02 00:18:49 | 41.42902 | 2.84030 | 88° | 95km/h | 9779m | -4.5m/s | 0°C | 0% | 0hPa | 0V | 00:00:00 | 00:00:00 | 00:00:00 | |
| EA3GEO | 2026-09-02 00:18:44 | 41.42894 | 2.83872 | 87° | 93km/h | 9814m | -5.4m/s | 0°C | 0% | 0hPa | 0V | 00:00:00 | 00:00:00 | 00:00:00 | |
| EA3GEO | 2026-09-02 00:18:38 | 41.42886 | 2.83690 | 89° | 84km/h | 9861m | -7.7m/s | 0°C | 0% | 0hPa | 0V | 00:00:00 | 00:00:00 | 00:00:00 | |
| EA3GEO | 2026-09-02 00:18:33 | 41.42878 | 2.83545 | 91° | 84km/h | 9920m | -10.4m/s | 0°C | 0% | 0hPa | 0V | 00:00:00 | 00:00:00 | 00:00:00 | |
| EA3GEO | 2026-09-02 00:18:28 | 41.42876 | 2.83410 | 90° | 77km/h | 9971m | -7.0m/s | 0°C | 0% | 0hPa | 0V | 00:00:00 | 00:00:00 | 00:00:00 | |
| EA3GEO | 2026-09-02 00:18:22 | 41.42871 | 2.83250 | 88° | 78km/h | 10006m | -5.0m/s | 0°C | 0% | 0hPa | 0V | 00:00:00 | 00:00:00 | 00:00:00 | |
| EA3GEO | 2026-09-02 00:18:17 | 41.42864 | 2.83120 | 89° | 78km/h | 10042m | -8.9m/s | 0°C | 0% | 0hPa | 0V | 00:00:00 | 00:00:00 | 00:00:00 | |
| EA3GEO | 2026-09-02 00:18:11 | 41.42856 | 2.82964 | 88° | 75km/h | 10079m | -4.0m/s | 0°C | 0% | 0hPa | 0V | 00:00:00 | 00:00:00 | 00:00:00 | |
| EA3GEO | 2026-09-02 00:18:06 | 41.42850 | 2.82835 | 87° | 77km/h | 10108m | -6.5m/s | 0°C | 0% | 0hPa | 0V | 00:00:00 | 00:00:00 | 00:00:00 | |
| EA3GEO | 2026-09-02 00:18:00 | 41.42844 | 2.82682 | 89° | 73km/h | 10158m | -7.0m/s | 0°C | 0% | 0hPa | 0V | 00:00:00 | 00:00:00 | 00:00:00 | |
| EA3GEO | 2026-09-02 00:17:54 | 41.42842 | 2.82532 | 91° | 73km/h | 10203m | -6.5m/s | 0°C | 0% | 0hPa | 0V | 00:00:00 | 00:00:00 | 00:00:00 | |
| EA3GEO | 2026-09-02 00:17:49 | 41.42843 | 2.82409 | 93° | 73km/h | 10248m | -11.9m/s | 0°C | 0% | 0hPa | 0V | 00:00:00 | 00:00:00 | 00:00:00 | |
| EA3GEO | 2026-09-02 00:17:44 | 41.42843 | 2.82287 | 92° | 68km/h | 10297m | -8.9m/s | 0°C | 0% | 0hPa | 0V | 00:00:00 | 00:00:00 | 00:00:00 | |
| EA3GEO | 2026-09-02 00:17:39 | 41.42846 | 2.82165 | 92° | 69km/h | 10339m | -7.4m/s | 0°C | 0% | 0hPa | 0V | 00:00:00 | 00:00:00 | 00:00:00 | |
| EA3GEO | 2026-09-02 00:17:33 | 41.42848 | 2.82026 | 93° | 68km/h | 10384m | -7.2m/s | 0°C | 0% | 0hPa | 0V | 00:00:00 | 00:00:00 | 00:00:00 | |
| EA3GEO | 2026-09-02 00:17:27 | 41.42852 | 2.81889 | 90° | 66km/h | 10423m | -6.2m/s | 0°C | 0% | 0hPa | 0V | 00:00:00 | 00:00:00 | 00:00:00 | |
| EA3GEO | 2026-09-02 00:17:21 | 41.42854 | 2.81754 | 96° | 68km/h | 10468m | -8.5m/s | 0°C | 0% | 0hPa | 0V | 00:00:00 | 00:00:00 | 00:00:00 | |
| EA3GEO | 2026-09-02 00:17:16 | 41.42858 | 2.81620 | 95° | 66km/h | 10518m | -8.0m/s | 0°C | 0% | 0hPa | 0V | 00:00:00 | 00:00:00 | 00:00:00 | |
| EA3GEO | 2026-09-02 00:17:06 | 41.42865 | 2.81424 | 90° | 66km/h | 10612m | -8.1m/s | 0°C | 0% | 0hPa | 0V | 00:00:00 | 00:00:00 | 00:00:00 | |
| EA3GEO | 2026-09-02 00:17:00 | 41.42864 | 2.81288 | 89° | 69km/h | 10653m | -4.9m/s | 0°C | 0% | 0hPa | 0V | 00:00:00 | 00:00:00 | 00:00:00 | |
| EA3GEO | 2026-09-02 00:16:55 | 41.42864 | 2.81174 | 91° | 69km/h | 10690m | -7.1m/s | 0°C | 0% | 0hPa | 0V | 00:00:00 | 00:00:00 | 00:00:00 | |
| EA3GEO | 2026-09-02 00:16:49 | 41.42860 | 2.81036 | 83° | 69km/h | 10744m | -9.4m/s | 0°C | 0% | 0hPa | 0V | 00:00:00 | 00:00:00 | 00:00:00 | |
| EA3GEO | 2026-09-02 00:16:44 | 41.42852 | 2.80917 | 86° | 71km/h | 10790m | -7.8m/s | 0°C | 0% | 0hPa | 0V | 00:00:00 | 00:00:00 | 00:00:00 | |
| EA3GEO | 2026-09-02 00:16:38 | 41.42838 | 2.80780 | 85° | 69km/h | 10835m | -11.8m/s | 0°C | 0% | 0hPa | 0V | 00:00:00 | 00:00:00 | 00:00:00 | |
| EA3GEO | 2026-09-02 00:16:33 | 41.42823 | 2.80665 | 83° | 68km/h | 10894m | -11.9m/s | 0°C | 0% | 0hPa | 0V | 00:00:00 | 00:00:00 | 00:00:00 | |
| EA3GEO | 2026-09-02 00:16:27 | 41.42808 | 2.80532 | 84° | 68km/h | 10968m | -10.4m/s | 0°C | 0% | 0hPa | 0V | 00:00:00 | 00:00:00 | 00:00:00 | |
| EA3GEO | 2026-09-02 00:16:22 | 41.42800 | 2.80422 | 82° | 66km/h | 11029m | -9.4m/s | 0°C | 0% | 0hPa | 0V | 00:00:00 | 00:00:00 | 00:00:00 | |
| EA3GEO | 2026-09-02 00:16:15 | 41.42782 | 2.80249 | 85° | 66km/h | 11129m | -11.0m/s | 0°C | 0% | 0hPa | 0V | 00:00:00 | 00:00:00 | 00:00:00 | |
| EA3GEO | 2026-09-02 00:16:08 | 41.42773 | 2.80117 | 88° | 66km/h | 11212m | -14.4m/s | 0°C | 0% | 0hPa | 0V | 00:00:00 | 00:00:00 | 00:00:00 | |
| EA3GEO | 2026-09-02 00:16:02 | 41.42767 | 2.79979 | 89° | 71km/h | 11297m | -13.8m/s | 0°C | 0% | 0hPa | 0V | 00:00:00 | 00:00:00 | 00:00:00 | |
| EA3GEO | 2026-09-02 00:15:57 | 41.42762 | 2.79857 | 89° | 71km/h | 11370m | -16.1m/s | 0°C | 0% | 0hPa | 0V | 00:00:00 | 00:00:00 | 00:00:00 | |
| EA3GEO | 2026-09-02 00:15:51 | 41.42757 | 2.79710 | 86° | 75km/h | 11461m | -15.4m/s | 0°C | 0% | 0hPa | 0V | 00:00:00 | 00:00:00 | 00:00:00 | |
| EA3GEO | 2026-09-02 00:15:45 | 41.42749 | 2.79560 | 86° | 75km/h | 11560m | -15.5m/s | 0°C | 0% | 0hPa | 0V | 00:00:00 | 00:00:00 | 00:00:00 | |
| EA3GEO | 2026-09-02 00:15:39 | 41.42737 | 2.79411 | 83° | 71km/h | 11656m | -14.1m/s | 0°C | 0% | 0hPa | 0V | 00:00:00 | 00:00:00 | 00:00:00 | |
| EA3GEO | 2026-09-02 00:15:32 | 41.42714 | 2.79240 | 77° | 73km/h | 11765m | -15.0m/s | 0°C | 0% | 0hPa | 0V | 00:00:00 | 00:00:00 | 00:00:00 | |
| EA3GEO | 2026-09-02 00:15:24 | 41.42673 | 2.79045 | 74° | 75km/h | 11893m | -16.2m/s | 0°C | 0% | 0hPa | 0V | 00:00:00 | 00:00:00 | 00:00:00 | |
| EA3GEO | 2026-09-02 00:15:18 | 41.42635 | 2.78867 | 74° | 82km/h | 12006m | -15.4m/s | 0°C | 0% | 0hPa | 0V | 00:00:00 | 00:00:00 | 00:00:00 | |
| EA3GEO | 2026-09-02 00:15:12 | 41.42601 | 2.78731 | 72° | 88km/h | 12087m | -13.5m/s | 0°C | 0% | 0hPa | 0V | 00:00:00 | 00:00:00 | 00:00:00 | |
| EA3GEO | 2026-09-02 00:15:06 | 41.42553 | 2.78555 | 72° | 93km/h | 12175m | -14.4m/s | 0°C | 0% | 0hPa | 0V | 00:00:00 | 00:00:00 | 00:00:00 | |
| EA3GEO | 2026-09-02 00:14:58 | 41.42492 | 2.78301 | 73° | 99km/h | 12292m | -16.1m/s | 0°C | 0% | 0hPa | 0V | 00:00:00 | 00:00:00 | 00:00:00 | |
| EA3GEO | 2026-09-02 00:14:52 | 41.42458 | 2.78112 | 81° | 93km/h | 12393m | -14.4m/s | 0°C | 0% | 0hPa | 0V | 00:00:00 | 00:00:00 | 00:00:00 | |
| EA3GEO | 2026-09-02 00:14:47 | 41.42440 | 2.77960 | 86° | 89km/h | 12479m | -16.2m/s | 0°C | 0% | 0hPa | 0V | 00:00:00 | 00:00:00 | 00:00:00 | |
| EA3GEO | 2026-09-02 00:14:40 | 41.42432 | 2.77754 | 89° | 86km/h | 12599m | -14.1m/s | 0°C | 0% | 0hPa | 0V | 00:00:00 | 00:00:00 | 00:00:00 | |
| EA3GEO | 2026-09-02 00:14:34 | 41.42428 | 2.77580 | 91° | 88km/h | 12695m | -15.9m/s | 0°C | 0% | 0hPa | 0V | 00:00:00 | 00:00:00 | 00:00:00 | |
| EA3GEO | 2026-09-02 00:14:28 | 41.42421 | 2.77404 | 87° | 89km/h | 12792m | -15.0m/s | 0°C | 0% | 0hPa | 0V | 00:00:00 | 00:00:00 | 00:00:00 | |
| EA3GEO | 2026-09-02 00:14:20 | 41.42414 | 2.77180 | 89° | 84km/h | 12916m | -15.4m/s | 0°C | 0% | 0hPa | 0V | 00:00:00 | 00:00:00 | 00:00:00 | |
| EA3GEO | 2026-09-02 00:14:10 | 41.42405 | 2.76892 | 87° | 73km/h | 13084m | -13.4m/s | 0°C | 0% | 0hPa | 0V | 00:00:00 | 00:00:00 | 00:00:00 | |
| EA3GEO | 2026-09-02 00:14:02 | 41.42401 | 2.76713 | 91° | 78km/h | 13187m | -13.9m/s | 0°C | 0% | 0hPa | 0V | 00:00:00 | 00:00:00 | 00:00:00 | |
| EA3GEO | 2026-09-02 00:13:56 | 41.42402 | 2.76552 | 91° | 80km/h | 13282m | -14.6m/s | 0°C | 0% | 0hPa | 0V | 00:00:00 | 00:00:00 | 00:00:00 | |
| EA3GEO | 2026-09-02 00:13:44 | 41.42415 | 2.76230 | 94° | 77km/h | 13469m | -13.2m/s | 0°C | 0% | 0hPa | 0V | 00:00:00 | 00:00:00 | 00:00:00 | |
| EA3GEO | 2026-09-02 00:13:36 | 41.42422 | 2.76025 | 91° | 71km/h | 13586m | -14.1m/s | 0°C | 0% | 0hPa | 0V | 00:00:00 | 00:00:00 | 00:00:00 | |
| EA3GEO | 2026-09-02 00:13:30 | 41.42419 | 2.75879 | 86° | 75km/h | 13668m | -10.8m/s | 0°C | 0% | 0hPa | 0V | 00:00:00 | 00:00:00 | 00:00:00 | |
| EA3GEO | 2026-09-02 00:13:24 | 41.42410 | 2.75729 | 86° | 75km/h | 13739m | -12.8m/s | 0°C | 0% | 0hPa | 0V | 00:00:00 | 00:00:00 | 00:00:00 | |
| EA3GEO | 2026-09-02 00:13:13 | 41.42404 | 2.75463 | 90° | 69km/h | 13899m | -12.7m/s | 0°C | 0% | 0hPa | 0V | 00:00:00 | 00:00:00 | 00:00:00 | |
| EA3GEO | 2026-09-02 00:13:06 | 41.42403 | 2.75300 | 86° | 69km/h | 13998m | -13.1m/s | 0°C | 0% | 0hPa | 0V | 00:00:00 | 00:00:00 | 00:00:00 | |
| EA3GEO | 2026-09-02 00:13:00 | 41.42396 | 2.75152 | 86° | 73km/h | 14082m | -12.7m/s | 0°C | 0% | 0hPa | 0V | 00:00:00 | 00:00:00 | 00:00:00 | |
| EA3GEO | 2026-09-02 00:12:44 | 41.42349 | 2.74768 | 78° | 75km/h | 14311m | -12.6m/s | 0°C | 0% | 0hPa | 0V | 00:00:00 | 00:00:00 | 00:00:00 | |
| EA3GEO | 2026-09-02 00:12:38 | 41.42325 | 2.74619 | 78° | 78km/h | 14395m | -14.1m/s | 0°C | 0% | 0hPa | 0V | 00:00:00 | 00:00:00 | 00:00:00 | |
| EA3GEO | 2026-09-02 00:12:32 | 41.42301 | 2.74460 | 81° | 78km/h | 14480m | -13.2m/s | 0°C | 0% | 0hPa | 0V | 00:00:00 | 00:00:00 | 00:00:00 | |
| EA3GEO | 2026-09-02 00:12:19 | 41.42284 | 2.74120 | 92° | 77km/h | 14652m | -12.8m/s | 0°C | 0% | 0hPa | 0V | 00:00:00 | 00:00:00 | 00:00:00 | |
| EA3GEO | 2026-09-02 00:12:15 | 41.42286 | 2.73994 | 93° | 73km/h | 14717m | -10.1m/s | 0°C | 0% | 0hPa | 0V | 00:00:00 | 00:00:00 | 00:00:00 | |
| EA3GEO | 2026-09-02 00:11:53 | 41.42302 | 2.73544 | 85° | 51km/h | 14999m | -12.9m/s | 0°C | 0% | 0hPa | 0V | 00:00:00 | 00:00:00 | 00:00:00 | |
| EA3GEO | 2026-09-02 00:11:45 | 41.42283 | 2.73397 | 76° | 60km/h | 15110m | -13.0m/s | 0°C | 0% | 0hPa | 0V | 00:00:00 | 00:00:00 | 00:00:00 | |
| EA3GEO | 2026-09-02 00:11:27 | 41.42225 | 2.73008 | 80° | 78km/h | 15328m | -6.9m/s | 0°C | 0% | 0hPa | 0V | 00:00:00 | 00:00:00 | 00:00:00 | |
| EA3GEO | 2026-09-02 00:11:02 | 41.42212 | 2.72465 | 96° | 58km/h | 15564m | -14.3m/s | 0°C | 0% | 0hPa | 0V | 00:00:00 | 00:00:00 | 00:00:00 | |
| EA3GEO | 2026-09-02 00:10:54 | 41.42219 | 2.72330 | 91° | 49km/h | 15680m | -12.2m/s | 0°C | 0% | 0hPa | 0V | 00:00:00 | 00:00:00 | 00:00:00 | |
| EA3GEO | 2026-09-02 00:10:47 | 41.42217 | 2.72216 | 91° | 49km/h | 15782m | -11.8m/s | 0°C | 0% | 0hPa | 0V | 00:00:00 | 00:00:00 | 00:00:00 | |
| EA3GEO | 2026-09-02 00:10:36 | 41.42215 | 2.72046 | 91° | 46km/h | 15931m | -10.6m/s | 0°C | 0% | 0hPa | 0V | 00:00:00 | 00:00:00 | 00:00:00 | |
| EA3GEO | 2026-09-02 00:10:29 | 41.42212 | 2.71943 | 85° | 44km/h | 16025m | -13.6m/s | 0°C | 0% | 0hPa | 0V | 00:00:00 | 00:00:00 | 00:00:00 | |
| EA3GEO | 2026-09-02 00:10:19 | 41.42176 | 2.71807 | 65° | 47km/h | 16157m | -11.9m/s | 0°C | 0% | 0hPa | 0V | 00:00:00 | 00:00:00 | 00:00:00 | |
| EA3GEO | 2026-09-02 00:10:02 | 41.42121 | 2.71564 | 82° | 47km/h | 16372m | -10.9m/s | 0°C | 0% | 0hPa | 0V | 00:00:00 | 00:00:00 | 00:00:00 | |
| EA3GEO | 2026-09-02 00:09:56 | 41.42110 | 2.71471 | 85° | 49km/h | 16453m | -15.5m/s | 0°C | 0% | 0hPa | 0V | 00:00:00 | 00:00:00 | 00:00:00 | |
| EA3GEO | 2026-09-02 00:09:37 | 41.42101 | 2.71143 | 86° | 55km/h | 16721m | -13.3m/s | 0°C | 0% | 0hPa | 0V | 00:00:00 | 00:00:00 | 00:00:00 | |
| EA3GEO | 2026-09-02 00:09:30 | 41.42094 | 2.71004 | 88° | 57km/h | 16814m | -11.6m/s | 0°C | 0% | 0hPa | 0V | 00:00:00 | 00:00:00 | 00:00:00 | |
| EA3GEO | 2026-09-02 00:09:21 | 41.42101 | 2.70834 | 99° | 55km/h | 16928m | -9.9m/s | 0°C | 0% | 0hPa | 0V | 00:00:00 | 00:00:00 | 00:00:00 | |
| EA3GEO | 2026-09-02 00:09:12 | 41.42121 | 2.70678 | 101° | 51km/h | 17029m | -11.1m/s | 0°C | 0% | 0hPa | 0V | 00:00:00 | 00:00:00 | 00:00:00 | |
| EA3GEO | 2026-09-02 00:09:02 | 41.42159 | 2.70534 | 117° | 38km/h | 17178m | -14.1m/s | 0°C | 0% | 0hPa | 0V | 00:00:00 | 00:00:00 | 00:00:00 | |
| EA3GEO | 2026-09-02 00:08:56 | 41.42182 | 2.70462 | 109° | 38km/h | 17271m | -13.4m/s | 0°C | 0% | 0hPa | 0V | 00:00:00 | 00:00:00 | 00:00:00 | |
| EA3GEO | 2026-09-02 00:08:46 | 41.42203 | 2.70371 | 89° | 20km/h | 17417m | -14.9m/s | 0°C | 0% | 0hPa | 0V | 00:00:00 | 00:00:00 | 00:00:00 | |
| EA3GEO | 2026-09-02 00:08:39 | 41.42194 | 2.70317 | 67° | 18km/h | 17511m | -13.0m/s | 0°C | 0% | 0hPa | 0V | 00:00:00 | 00:00:00 | 00:00:00 | |
| EA3GEO | 2026-09-02 00:08:08 | 41.42119 | 2.70054 | 60° | 27km/h | 17923m | -11.9m/s | 0°C | 0% | 0hPa | 0V | 00:00:00 | 00:00:00 | 00:00:00 | |
| EA3GEO | 2026-09-02 00:07:43 | 41.41971 | 2.69843 | 51° | 47km/h | 18227m | -12.1m/s | 0°C | 0% | 0hPa | 0V | 00:00:00 | 00:00:00 | 00:00:00 | |
| EA3GEO | 2026-09-02 00:07:22 | 41.41890 | 2.69565 | 92° | 38km/h | 18575m | -17.1m/s | 0°C | 0% | 0hPa | 0V | 00:00:00 | 00:00:00 | 00:00:00 | |
| EA3GEO | 2026-09-02 00:07:14 | 41.41904 | 2.69474 | 110° | 33km/h | 18707m | -14.7m/s | 0°C | 0% | 0hPa | 0V | 00:00:00 | 00:00:00 | 00:00:00 | |
| EA3GEO | 2026-09-02 00:07:08 | 41.41929 | 2.69416 | 131° | 38km/h | 18790m | -12.0m/s | 0°C | 0% | 0hPa | 0V | 00:00:00 | 00:00:00 | 00:00:00 | |
| EA3GEO | 2026-09-02 00:07:02 | 41.41973 | 2.69354 | 137° | 40km/h | 18856m | -9.8m/s | 0°C | 0% | 0hPa | 0V | 00:00:00 | 00:00:00 | 00:00:00 | |
| EA3GEO | 2026-09-02 00:06:47 | 41.42067 | 2.69308 | 170° | 22km/h | 19048m | -10.0m/s | 0°C | 0% | 0hPa | 0V | 00:00:00 | 00:00:00 | 00:00:00 | |
| EA3GEO | 2026-09-02 00:06:39 | 41.42099 | 2.69316 | 179° | 11km/h | 19150m | -14.1m/s | 0°C | 0% | 0hPa | 0V | 00:00:00 | 00:00:00 | 00:00:00 | |
| EA3GEO | 2026-09-02 00:06:34 | 41.42113 | 2.69315 | 176° | 13km/h | 19212m | -7.8m/s | 0°C | 0% | 0hPa | 0V | 00:00:00 | 00:00:00 | 00:00:00 | |
| EA3GEO | 2026-09-02 00:06:27 | 41.42128 | 2.69308 | 127° | 11km/h | 19297m | -13.6m/s | 0°C | 0% | 0hPa | 0V | 00:00:00 | 00:00:00 | 00:00:00 | |
| EA3GEO | 2026-09-02 00:06:21 | 41.42129 | 2.69293 | 49° | 13km/h | 19386m | -11.6m/s | 0°C | 0% | 0hPa | 0V | 00:00:00 | 00:00:00 | 00:00:00 | |
| EA3GEO | 2026-09-02 00:06:16 | 41.42113 | 2.69262 | 75° | 29km/h | 19457m | -15.9m/s | 0°C | 0% | 0hPa | 0V | 00:00:00 | 00:00:00 | 00:00:00 | |
| EA3GEO | 2026-09-02 00:06:10 | 41.42114 | 2.69209 | 103° | 24km/h | 19561m | -14.4m/s | 0°C | 0% | 0hPa | 0V | 00:00:00 | 00:00:00 | 00:00:00 | |
| EA3GEO | 2026-09-02 00:06:02 | 41.42131 | 2.69142 | 134° | 20km/h | 19681m | -12.0m/s | 0°C | 0% | 0hPa | 0V | 00:00:00 | 00:00:00 | 00:00:00 | |
| EA3GEO | 2026-09-02 00:05:57 | 41.42151 | 2.69122 | 151° | 18km/h | 19746m | -13.0m/s | 0°C | 0% | 0hPa | 0V | 00:00:00 | 00:00:00 | 00:00:00 | |
| EA3GEO | 2026-09-02 00:05:51 | 41.42173 | 2.69102 | 150° | 18km/h | 19821m | -10.1m/s | 0°C | 0% | 0hPa | 0V | 00:00:00 | 00:00:00 | 00:00:00 | |
| EA3GEO | 2026-09-02 00:05:38 | 41.42231 | 2.69024 | 140° | 33km/h | 19997m | -10.2m/s | 0°C | 0% | 0hPa | 0V | 00:00:00 | 00:00:00 | 00:00:00 | |
| EA3GEO | 2026-09-02 00:05:27 | 41.42269 | 2.68991 | 121° | 5km/h | 20135m | -13.5m/s | 0°C | 0% | 0hPa | 0V | 00:00:00 | 00:00:00 | 00:00:00 | |
| EA3GEO | 2026-09-02 00:05:07 | 41.42301 | 2.68985 | 165° | 11km/h | 20389m | -10.9m/s | 0°C | 0% | 0hPa | 0V | 00:00:00 | 00:00:00 | 00:00:00 | |
| EA3GEO | 2026-09-02 00:05:00 | 41.42317 | 2.68975 | 151° | 9km/h | 20448m | -11.1m/s | 0°C | 0% | 0hPa | 0V | 00:00:00 | 00:00:00 | 00:00:00 | |
| EA3GEO | 2026-09-02 00:04:53 | 41.42325 | 2.68972 | 191° | 16km/h | 20551m | -15.1m/s | 0°C | 0% | 0hPa | 0V | 00:00:00 | 00:00:00 | 00:00:00 | |
| EA3GEO | 2026-09-02 00:04:44 | 41.42347 | 2.68996 | 268° | 13km/h | 20684m | -12.9m/s | 0°C | 0% | 0hPa | 0V | 00:00:00 | 00:00:00 | 00:00:00 | |
| EA3GEO | 2026-09-02 00:04:39 | 41.42349 | 2.69005 | 254° | 2km/h | 20779m | -10.7m/s | 0°C | 0% | 0hPa | 0V | 00:00:00 | 00:00:00 | 00:00:00 | |
| EA3GEO | 2026-09-02 00:04:32 | 41.42355 | 2.69003 | 223° | 5km/h | 20854m | -16.0m/s | 0°C | 0% | 0hPa | 0V | 00:00:00 | 00:00:00 | 00:00:00 | |
| EA3GEO | 2026-09-02 00:04:24 | 41.42364 | 2.69022 | 257° | 15km/h | 20940m | -8.2m/s | 0°C | 0% | 0hPa | 0V | 00:00:00 | 00:00:00 | 00:00:00 | |
| EA3GEO | 2026-09-02 00:04:12 | 41.42361 | 2.69062 | 266° | 11km/h | 21081m | -9.8m/s | 0°C | 0% | 0hPa | 0V | 00:00:00 | 00:00:00 | 00:00:00 | |
| EA3GEO | 2026-09-02 00:04:05 | 41.42353 | 2.69085 | 299° | 15km/h | 21156m | -7.2m/s | 0°C | 0% | 0hPa | 0V | 00:00:00 | 00:00:00 | 00:00:00 | |
| EA3GEO | 2026-09-02 00:04:01 | 41.42362 | 2.69103 | 292° | 2km/h | 21232m | -9.4m/s | 0°C | 0% | 0hPa | 0V | 00:00:00 | 00:00:00 | 00:00:00 | |
| EA3GEO | 2026-09-02 00:03:53 | 41.42360 | 2.69126 | 261° | 13km/h | 21297m | -10.5m/s | 0°C | 0% | 0hPa | 0V | 00:00:00 | 00:00:00 | 00:00:00 | |
| EA3GEO | 2026-09-02 00:03:50 | 41.42360 | 2.69146 | 302° | 13km/h | 21331m | 4.2m/s | 0°C | 0% | 0hPa | 0V | 00:00:00 | 00:00:00 | 00:00:00 | |
| EA3GEO | 2026-09-02 00:03:42 | 41.42356 | 2.69184 | 252° | 18km/h | 21302m | 5.2m/s | 0°C | 0% | 0hPa | 0V | 00:00:00 | 00:00:00 | 00:00:00 | |
| EA3GEO | 2026-09-02 00:03:32 | 41.42356 | 2.69197 | 251° | 7km/h | 21279m | 3.9m/s | 0°C | 0% | 0hPa | 0V | 00:00:00 | 00:00:00 | 00:00:00 | |
| EA3GEO | 2026-09-02 00:03:28 | 41.42355 | 2.69220 | 66° | 7km/h | 21236m | 4.6m/s | 0°C | 0% | 0hPa | 0V | 00:00:00 | 00:00:00 | 00:00:00 | |
| EA3GEO | 2026-09-02 00:03:21 | 41.42360 | 2.69229 | 250° | 5km/h | 21172m | 5.9m/s | 0°C | 0% | 0hPa | 0V | 00:00:00 | 00:00:00 | 00:00:00 | |
| EA3GEO | 2026-09-02 00:03:18 | 41.42359 | 2.69241 | 301° | 16km/h | 21138m | 5.9m/s | 0°C | 0% | 0hPa | 0V | 00:00:00 | 00:00:00 | 00:00:00 | |
| EA3GEO | 2026-09-02 00:03:13 | 41.42355 | 2.69267 | 239° | 13km/h | 21112m | 5.2m/s | 0°C | 0% | 0hPa | 0V | 00:00:00 | 00:00:00 | 00:00:00 | |
| EA3GEO | 2026-09-02 00:03:07 | 41.42343 | 2.69287 | 300° | 24km/h | 21081m | 4.8m/s | 0°C | 0% | 0hPa | 0V | 00:00:00 | 00:00:00 | 00:00:00 | |
| EA3GEO | 2026-09-02 00:02:59 | 41.42338 | 2.69309 | 219° | 5km/h | 21057m | 6.3m/s | 0°C | 0% | 0hPa | 0V | 00:00:00 | 00:00:00 | 00:00:00 | |
| EA3GEO | 2026-09-02 00:02:50 | 41.42329 | 2.69320 | 290° | 15km/h | 21027m | 5.7m/s | 0°C | 0% | 0hPa | 0V | 00:00:00 | 00:00:00 | 00:00:00 | |
| EA3GEO | 2026-09-02 00:02:44 | 41.42333 | 2.69344 | 240° | 5km/h | 20996m | 4.6m/s | 0°C | 0% | 0hPa | 0V | 00:00:00 | 00:00:00 | 00:00:00 | |
| EA3GEO | 2026-09-02 00:02:40 | 41.42336 | 2.69366 | 227° | 13km/h | 20958m | 6.1m/s | 0°C | 0% | 0hPa | 0V | 00:00:00 | 00:00:00 | 00:00:00 | |
| EA3GEO | 2026-09-02 00:02:26 | 41.42355 | 2.69396 | 226° | 22km/h | 20904m | 4.1m/s | 0°C | 0% | 0hPa | 0V | 00:00:00 | 00:00:00 | 00:00:00 | |
| EA3GEO | 2026-09-02 00:02:18 | 41.42365 | 2.69416 | 214° | 13km/h | 20874m | 4.7m/s | 0°C | 0% | 0hPa | 0V | 00:00:00 | 00:00:00 | 00:00:00 | |
| EA3GEO | 2026-09-02 00:02:01 | 41.42395 | 2.69421 | 138° | 9km/h | 20793m | 4.6m/s | 0°C | 0% | 0hPa | 0V | 00:00:00 | 00:00:00 | 00:00:00 | |
| EA3GEO | 2026-09-02 00:01:55 | 41.42395 | 2.69422 | 202° | 5km/h | 20747m | 5.0m/s | 0°C | 0% | 0hPa | 0V | 00:00:00 | 00:00:00 | 00:00:00 | |
| EA3GEO | 2026-09-02 00:01:50 | 41.42394 | 2.69423 | 280° | 7km/h | 20717m | 5.4m/s | 0°C | 0% | 0hPa | 0V | 00:00:00 | 00:00:00 | 00:00:00 | |
| EA3GEO | 2026-09-02 00:01:42 | 41.42401 | 2.69439 | 283° | 13km/h | 20687m | 5.1m/s | 0°C | 0% | 0hPa | 0V | 00:00:00 | 00:00:00 | 00:00:00 | |
| EA3GEO | 2026-09-02 00:01:35 | 41.42405 | 2.69455 | 240° | 20km/h | 20657m | 5.5m/s | 0°C | 0% | 0hPa | 0V | 00:00:00 | 00:00:00 | 00:00:00 | |
| EA3GEO | 2026-09-02 00:01:27 | 41.42422 | 2.69473 | 208° | 11km/h | 20627m | 4.4m/s | 0°C | 0% | 0hPa | 0V | 00:00:00 | 00:00:00 | 00:00:00 | |
| EA3GEO | 2026-09-02 00:01:20 | 41.42445 | 2.69485 | 222° | 18km/h | 20598m | 3.5m/s | 0°C | 0% | 0hPa | 0V | 00:00:00 | 00:00:00 | 00:00:00 | |
| EA3GEO | 2026-09-02 00:01:04 | 41.42480 | 2.69495 | 110° | 4km/h | 20534m | 6.1m/s | 0°C | 0% | 0hPa | 0V | 00:00:00 | 00:00:00 | 00:00:00 | |
| EA3GEO | 2026-09-02 00:00:59 | 41.42490 | 2.69486 | 187° | 20km/h | 20510m | 5.2m/s | 0°C | 0% | 0hPa | 0V | 00:00:00 | 00:00:00 | 00:00:00 | |
| EA3GEO | 2026-09-02 00:00:52 | 41.42505 | 2.69486 | 90° | 9km/h | 20480m | 6.6m/s | 0°C | 0% | 0hPa | 0V | 00:00:00 | 00:00:00 | 00:00:00 | |
| EA3GEO | 2026-09-02 00:00:49 | 41.42521 | 2.69470 | 168° | 16km/h | 20450m | 4.4m/s | 0°C | 0% | 0hPa | 0V | 00:00:00 | 00:00:00 | 00:00:00 | |
| EA3GEO | 2026-09-02 00:00:44 | 41.42534 | 2.69464 | 131° | 20km/h | 20420m | 4.0m/s | 0°C | 0% | 0hPa | 0V | 00:00:00 | 00:00:00 | 00:00:00 | |
| EA3GEO | 2026-09-02 00:00:37 | 41.42542 | 2.69456 | 92° | 4km/h | 20391m | 4.3m/s | 0°C | 0% | 0hPa | 0V | 00:00:00 | 00:00:00 | 00:00:00 | |
| EA3GEO | 2026-09-02 00:00:33 | 41.42555 | 2.69450 | 145° | 18km/h | 20363m | 4.6m/s | 0°C | 0% | 0hPa | 0V | 00:00:00 | 00:00:00 | 00:00:00 | |
| EA3GEO | 2026-09-02 00:00:28 | 41.42561 | 2.69449 | 348° | 5km/h | 20338m | 5.4m/s | 0°C | 0% | 0hPa | 0V | 00:00:00 | 00:00:00 | 00:00:00 | |
| EA3GEO | 2026-09-02 00:00:24 | 41.42567 | 2.69449 | 157° | 9km/h | 20316m | 5.3m/s | 0°C | 0% | 0hPa | 0V | 00:00:00 | 00:00:00 | 00:00:00 | |
| EA3GEO | 2026-09-02 00:00:19 | 41.42570 | 2.69445 | 193° | 11km/h | 20293m | 4.0m/s | 0°C | 0% | 0hPa | 0V | 00:00:00 | 00:00:00 | 00:00:00 | |
| EA3GEO | 2026-09-02 00:00:01 | 41.42589 | 2.69440 | 143° | 11km/h | 20235m | 3.9m/s | 0°C | 0% | 0hPa | 0V | 00:00:00 | 00:00:00 | 00:00:00 | |
| EA3GEO | 2026-09-01 23:59:56 | 41.42592 | 2.69438 | 247° | 9km/h | 20211m | 4.1m/s | 0°C | 0% | 0hPa | 0V | 00:00:00 | 00:00:00 | 00:00:00 | |
| EA3GEO | 2026-09-01 23:59:50 | 41.42594 | 2.69427 | 139° | 16km/h | 20182m | 4.6m/s | 0°C | 0% | 0hPa | 0V | 00:00:00 | 00:00:00 | 00:00:00 | |
| EA3GEO | 2026-09-01 23:59:46 | 41.42603 | 2.69422 | 228° | 5km/h | 20158m | 5.6m/s | 0°C | 0% | 0hPa | 0V | 00:00:00 | 00:00:00 | 00:00:00 | |
| EA3GEO | 2026-09-01 23:59:40 | 41.42606 | 2.69408 | 122° | 20km/h | 20136m | 5.3m/s | 0°C | 0% | 0hPa | 0V | 00:00:00 | 00:00:00 | 00:00:00 | |
| EA3GEO | 2026-09-01 23:59:33 | 41.42632 | 2.69401 | 135° | 11km/h | 20101m | 5.2m/s | 0°C | 0% | 0hPa | 0V | 00:00:00 | 00:00:00 | 00:00:00 | |
| EA3GEO | 2026-09-01 23:59:28 | 41.42649 | 2.69377 | 147° | 33km/h | 20075m | 6.0m/s | 0°C | 0% | 0hPa | 0V | 00:00:00 | 00:00:00 | 00:00:00 | |
| EA3GEO | 2026-09-01 23:59:23 | 41.42673 | 2.69360 | 126° | 16km/h | 20052m | 5.6m/s | 0°C | 0% | 0hPa | 0V | 00:00:00 | 00:00:00 | 00:00:00 | |
| EA3GEO | 2026-09-01 23:59:17 | 41.42703 | 2.69312 | 148° | 40km/h | 20023m | 6.2m/s | 0°C | 0% | 0hPa | 0V | 00:00:00 | 00:00:00 | 00:00:00 | |
| EA3GEO | 2026-09-01 23:59:11 | 41.42739 | 2.69271 | 109° | 35km/h | 19993m | 5.1m/s | 0°C | 0% | 0hPa | 0V | 00:00:00 | 00:00:00 | 00:00:00 | |
| EA3GEO | 2026-09-01 23:59:06 | 41.42767 | 2.69226 | 144° | 35km/h | 19963m | 6.0m/s | 0°C | 0% | 0hPa | 0V | 00:00:00 | 00:00:00 | 00:00:00 | |
| EA3GEO | 2026-09-01 23:58:59 | 41.42797 | 2.69181 | 140° | 22km/h | 19935m | 5.9m/s | 0°C | 0% | 0hPa | 0V | 00:00:00 | 00:00:00 | 00:00:00 | |
| EA3GEO | 2026-09-01 23:58:53 | 41.42826 | 2.69147 | 131° | 33km/h | 19907m | 5.8m/s | 0°C | 0% | 0hPa | 0V | 00:00:00 | 00:00:00 | 00:00:00 | |
| EA3GEO | 2026-09-01 23:58:47 | 41.42843 | 2.69107 | 129° | 15km/h | 19879m | 5.7m/s | 0°C | 0% | 0hPa | 0V | 00:00:00 | 00:00:00 | 00:00:00 | |
| EA3GEO | 2026-09-01 23:58:42 | 41.42866 | 2.69082 | 126° | 24km/h | 19855m | 4.2m/s | 0°C | 0% | 0hPa | 0V | 00:00:00 | 00:00:00 | 00:00:00 | |
| EA3GEO | 2026-09-01 23:58:36 | 41.42885 | 2.69057 | 156° | 7km/h | 19827m | 4.0m/s | 0°C | 0% | 0hPa | 0V | 00:00:00 | 00:00:00 | 00:00:00 | |
| EA3GEO | 2026-09-01 23:58:31 | 41.42901 | 2.69044 | 123° | 15km/h | 19804m | 4.7m/s | 0°C | 0% | 0hPa | 0V | 00:00:00 | 00:00:00 | 00:00:00 | |
| EA3GEO | 2026-09-01 23:58:25 | 41.42924 | 2.69023 | 169° | 13km/h | 19775m | 5.5m/s | 0°C | 0% | 0hPa | 0V | 00:00:00 | 00:00:00 | 00:00:00 | |
| EA3GEO | 2026-09-01 23:58:19 | 41.42945 | 2.69012 | 157° | 20km/h | 19747m | 5.2m/s | 0°C | 0% | 0hPa | 0V | 00:00:00 | 00:00:00 | 00:00:00 | |
| EA3GEO | 2026-09-01 23:58:13 | 41.42976 | 2.68988 | 132° | 15km/h | 19718m | 6.1m/s | 0°C | 0% | 0hPa | 0V | 00:00:00 | 00:00:00 | 00:00:00 | |
| EA3GEO | 2026-09-01 23:58:08 | 41.42992 | 2.68966 | 136° | 33km/h | 19694m | 3.9m/s | 0°C | 0% | 0hPa | 0V | 00:00:00 | 00:00:00 | 00:00:00 | |
| EA3GEO | 2026-09-01 23:58:02 | 41.43008 | 2.68918 | 103° | 27km/h | 19664m | 4.2m/s | 0°C | 0% | 0hPa | 0V | 00:00:00 | 00:00:00 | 00:00:00 | |
| EA3GEO | 2026-09-01 23:57:56 | 41.43027 | 2.68872 | 127° | 26km/h | 19636m | 5.3m/s | 0°C | 0% | 0hPa | 0V | 00:00:00 | 00:00:00 | 00:00:00 | |
| EA3GEO | 2026-09-01 23:57:50 | 41.43032 | 2.68815 | 90° | 27km/h | 19605m | 4.5m/s | 0°C | 0% | 0hPa | 0V | 00:00:00 | 00:00:00 | 00:00:00 | |
| EA3GEO | 2026-09-01 23:57:45 | 41.43038 | 2.68769 | 98° | 22km/h | 19580m | 4.1m/s | 0°C | 0% | 0hPa | 0V | 00:00:00 | 00:00:00 | 00:00:00 | |
| EA3GEO | 2026-09-01 23:57:40 | 41.43036 | 2.68723 | 90° | 27km/h | 19555m | 4.1m/s | 0°C | 0% | 0hPa | 0V | 00:00:00 | 00:00:00 | 00:00:00 | |
| EA3GEO | 2026-09-01 23:57:34 | 41.43034 | 2.68673 | 77° | 26km/h | 19528m | 5.2m/s | 0°C | 0% | 0hPa | 0V | 00:00:00 | 00:00:00 | 00:00:00 | |
| EA3GEO | 2026-09-01 23:57:28 | 41.43021 | 2.68612 | 76° | 35km/h | 19500m | 4.1m/s | 0°C | 0% | 0hPa | 0V | 00:00:00 | 00:00:00 | 00:00:00 | |
| EA3GEO | 2026-09-01 23:57:23 | 41.43009 | 2.68577 | 52° | 27km/h | 19477m | 5.3m/s | 0°C | 0% | 0hPa | 0V | 00:00:00 | 00:00:00 | 00:00:00 | |
| EA3GEO | 2026-09-01 23:57:17 | 41.42984 | 2.68532 | 50° | 20km/h | 19449m | 5.5m/s | 0°C | 0% | 0hPa | 0V | 00:00:00 | 00:00:00 | 00:00:00 | |
| EA3GEO | 2026-09-01 23:57:12 | 41.42968 | 2.68511 | 46° | 18km/h | 19424m | 5.4m/s | 0°C | 0% | 0hPa | 0V | 00:00:00 | 00:00:00 | 00:00:00 | |
| EA3GEO | 2026-09-01 23:57:06 | 41.42949 | 2.68490 | 30° | 13km/h | 19394m | 5.9m/s | 0°C | 0% | 0hPa | 0V | 00:00:00 | 00:00:00 | 00:00:00 | |
| EA3GEO | 2026-09-01 23:57:00 | 41.42934 | 2.68473 | 36° | 13km/h | 19363m | 6.4m/s | 0°C | 0% | 0hPa | 0V | 00:00:00 | 00:00:00 | 00:00:00 | |
| EA3GEO | 2026-09-01 23:56:55 | 41.42929 | 2.68462 | 57° | 5km/h | 19337m | 6.3m/s | 0°C | 0% | 0hPa | 0V | 00:00:00 | 00:00:00 | 00:00:00 | |
| EA3GEO | 2026-09-01 23:56:49 | 41.42925 | 2.68444 | 52° | 11km/h | 19306m | 5.2m/s | 0°C | 0% | 0hPa | 0V | 00:00:00 | 00:00:00 | 00:00:00 | |
| EA3GEO | 2026-09-01 23:56:44 | 41.42923 | 2.68434 | 124° | 4km/h | 19280m | 6.1m/s | 0°C | 0% | 0hPa | 0V | 00:00:00 | 00:00:00 | 00:00:00 | |
| EA3GEO | 2026-09-01 23:56:38 | 41.42929 | 2.68428 | 196° | 5km/h | 19248m | 3.8m/s | 0°C | 0% | 0hPa | 0V | 00:00:00 | 00:00:00 | 00:00:00 | |
| EA3GEO | 2026-09-01 23:56:32 | 41.42934 | 2.68421 | 84° | 5km/h | 19219m | 4.9m/s | 0°C | 0% | 0hPa | 0V | 00:00:00 | 00:00:00 | 00:00:00 | |
| EA3GEO | 2026-09-01 23:56:26 | 41.42947 | 2.68417 | 189° | 15km/h | 19189m | 5.2m/s | 0°C | 0% | 0hPa | 0V | 00:00:00 | 00:00:00 | 00:00:00 | |
| EA3GEO | 2026-09-01 23:56:21 | 41.42954 | 2.68412 | 121° | 11km/h | 19164m | 5.6m/s | 0°C | 0% | 0hPa | 0V | 00:00:00 | 00:00:00 | 00:00:00 | |
| EA3GEO | 2026-09-01 23:56:16 | 41.42968 | 2.68405 | 206° | 22km/h | 19139m | 6.7m/s | 0°C | 0% | 0hPa | 0V | 00:00:00 | 00:00:00 | 00:00:00 | |
| EA3GEO | 2026-09-01 23:56:09 | 41.42987 | 2.68403 | 142° | 13km/h | 19105m | 4.5m/s | 0°C | 0% | 0hPa | 0V | 00:00:00 | 00:00:00 | 00:00:00 | |
| EA3GEO | 2026-09-01 23:56:04 | 41.43004 | 2.68397 | 186° | 16km/h | 19078m | 5.9m/s | 0°C | 0% | 0hPa | 0V | 00:00:00 | 00:00:00 | 00:00:00 | |
| EA3GEO | 2026-09-01 23:55:59 | 41.43024 | 2.68397 | 159° | 18km/h | 19053m | 4.0m/s | 0°C | 0% | 0hPa | 0V | 00:00:00 | 00:00:00 | 00:00:00 | |
| EA3GEO | 2026-09-01 23:55:54 | 41.43047 | 2.68391 | 164° | 20km/h | 19029m | 3.3m/s | 0°C | 0% | 0hPa | 0V | 00:00:00 | 00:00:00 | 00:00:00 | |
| EA3GEO | 2026-09-01 23:55:47 | 41.43079 | 2.68386 | 182° | 26km/h | 18994m | 4.5m/s | 0°C | 0% | 0hPa | 0V | 00:00:00 | 00:00:00 | 00:00:00 | |
| EA3GEO | 2026-09-01 23:55:42 | 41.43116 | 2.68379 | 163° | 22km/h | 18964m | 5.9m/s | 0°C | 0% | 0hPa | 0V | 00:00:00 | 00:00:00 | 00:00:00 | |
| EA3GEO | 2026-09-01 23:55:36 | 41.43147 | 2.68365 | 160° | 31km/h | 18941m | 4.9m/s | 0°C | 0% | 0hPa | 0V | 00:00:00 | 00:00:00 | 00:00:00 | |
| EA3GEO | 2026-09-01 23:55:30 | 41.43188 | 2.68337 | 149° | 29km/h | 18909m | 6.8m/s | 0°C | 0% | 0hPa | 0V | 00:00:00 | 00:00:00 | 00:00:00 | |
| EA3GEO | 2026-09-01 23:55:25 | 41.43226 | 2.68301 | 139° | 40km/h | 18883m | 5.7m/s | 0°C | 0% | 0hPa | 0V | 00:00:00 | 00:00:00 | 00:00:00 | |
| EA3GEO | 2026-09-01 23:55:20 | 41.43259 | 2.68254 | 127° | 37km/h | 18858m | 4.5m/s | 0°C | 0% | 0hPa | 0V | 00:00:00 | 00:00:00 | 00:00:00 | |
| EA3GEO | 2026-09-01 23:55:15 | 41.43282 | 2.68206 | 123° | 37km/h | 18834m | 3.3m/s | 0°C | 0% | 0hPa | 0V | 00:00:00 | 00:00:00 | 00:00:00 | |
| EA3GEO | 2026-09-01 23:55:10 | 41.43305 | 2.68162 | 121° | 35km/h | 18810m | 3.4m/s | 0°C | 0% | 0hPa | 0V | 00:00:00 | 00:00:00 | 00:00:00 | |
| EA3GEO | 2026-09-01 23:55:04 | 41.43334 | 2.68099 | 117° | 31km/h | 18780m | 5.1m/s | 0°C | 0% | 0hPa | 0V | 00:00:00 | 00:00:00 | 00:00:00 | |
| EA3GEO | 2026-09-01 23:54:58 | 41.43349 | 2.68040 | 115° | 35km/h | 18751m | 4.2m/s | 0°C | 0% | 0hPa | 0V | 00:00:00 | 00:00:00 | 00:00:00 | |
| EA3GEO | 2026-09-01 23:54:53 | 41.43367 | 2.67985 | 117° | 31km/h | 18726m | 5.5m/s | 0°C | 0% | 0hPa | 0V | 00:00:00 | 00:00:00 | 00:00:00 | |
| EA3GEO | 2026-09-01 23:54:47 | 41.43382 | 2.67924 | 103° | 42km/h | 18697m | 5.4m/s | 0°C | 0% | 0hPa | 0V | 00:00:00 | 00:00:00 | 00:00:00 | |
| EA3GEO | 2026-09-01 23:54:42 | 41.43391 | 2.67864 | 103° | 33km/h | 18673m | 5.1m/s | 0°C | 0% | 0hPa | 0V | 00:00:00 | 00:00:00 | 00:00:00 | |
| EA3GEO | 2026-09-01 23:54:36 | 41.43407 | 2.67799 | 106° | 40km/h | 18646m | 4.0m/s | 0°C | 0% | 0hPa | 0V | 00:00:00 | 00:00:00 | 00:00:00 | |
| EA3GEO | 2026-09-01 23:54:29 | 41.43415 | 2.67720 | 99° | 33km/h | 18610m | 5.4m/s | 0°C | 0% | 0hPa | 0V | 00:00:00 | 00:00:00 | 00:00:00 | |
| EA3GEO | 2026-09-01 23:54:19 | 41.43420 | 2.67587 | 96° | 42km/h | 18558m | 6.0m/s | 0°C | 0% | 0hPa | 0V | 00:00:00 | 00:00:00 | 00:00:00 | |
| EA3GEO | 2026-09-01 23:54:13 | 41.43412 | 2.67491 | 79° | 51km/h | 18529m | 5.1m/s | 0°C | 0% | 0hPa | 0V | 00:00:00 | 00:00:00 | 00:00:00 | |
| EA3GEO | 2026-09-01 23:54:08 | 41.43401 | 2.67415 | 83° | 46km/h | 18505m | 5.4m/s | 0°C | 0% | 0hPa | 0V | 00:00:00 | 00:00:00 | 00:00:00 | |
| EA3GEO | 2026-09-01 23:54:02 | 41.43390 | 2.67328 | 85° | 46km/h | 18477m | 4.0m/s | 0°C | 0% | 0hPa | 0V | 00:00:00 | 00:00:00 | 00:00:00 | |
| EA3GEO | 2026-09-01 23:53:56 | 41.43379 | 2.67242 | 77° | 47km/h | 18450m | 4.1m/s | 0°C | 0% | 0hPa | 0V | 00:00:00 | 00:00:00 | 00:00:00 | |
| EA3GEO | 2026-09-01 23:53:50 | 41.43368 | 2.67170 | 77° | 38km/h | 18419m | 5.2m/s | 0°C | 0% | 0hPa | 0V | 00:00:00 | 00:00:00 | 00:00:00 | |
| EA3GEO | 2026-09-01 23:53:45 | 41.43349 | 2.67106 | 68° | 37km/h | 18395m | 5.5m/s | 0°C | 0% | 0hPa | 0V | 00:00:00 | 00:00:00 | 00:00:00 | |
| EA3GEO | 2026-09-01 23:53:40 | 41.43333 | 2.67051 | 60° | 37km/h | 18373m | 5.4m/s | 0°C | 0% | 0hPa | 0V | 00:00:00 | 00:00:00 | 00:00:00 | |
| EA3GEO | 2026-09-01 23:53:34 | 41.43302 | 2.66972 | 65° | 46km/h | 18344m | 3.7m/s | 0°C | 0% | 0hPa | 0V | 00:00:00 | 00:00:00 | 00:00:00 | |
| EA3GEO | 2026-09-01 23:53:28 | 41.43266 | 2.66902 | 54° | 42km/h | 18317m | 4.8m/s | 0°C | 0% | 0hPa | 0V | 00:00:00 | 00:00:00 | 00:00:00 | |
| EA3GEO | 2026-09-01 23:53:22 | 41.43233 | 2.66818 | 69° | 42km/h | 18290m | 4.0m/s | 0°C | 0% | 0hPa | 0V | 00:00:00 | 00:00:00 | 00:00:00 | |
| EA3GEO | 2026-09-01 23:53:16 | 41.43196 | 2.66761 | 63° | 33km/h | 18263m | 4.9m/s | 0°C | 0% | 0hPa | 0V | 00:00:00 | 00:00:00 | 00:00:00 | |
| EA3GEO | 2026-09-01 23:53:11 | 41.43176 | 2.66704 | 63° | 42km/h | 18239m | 4.6m/s | 0°C | 0% | 0hPa | 0V | 00:00:00 | 00:00:00 | 00:00:00 | |
| EA3GEO | 2026-09-01 23:53:06 | 41.43143 | 2.66663 | 48° | 26km/h | 18216m | 4.7m/s | 0°C | 0% | 0hPa | 0V | 00:00:00 | 00:00:00 | 00:00:00 | |
| EA3GEO | 2026-09-01 23:53:01 | 41.43117 | 2.66619 | 45° | 35km/h | 18194m | 5.2m/s | 0°C | 0% | 0hPa | 0V | 00:00:00 | 00:00:00 | 00:00:00 | |
| EA3GEO | 2026-09-01 23:52:54 | 41.43077 | 2.66574 | 38° | 26km/h | 18161m | 5.8m/s | 0°C | 0% | 0hPa | 0V | 00:00:00 | 00:00:00 | 00:00:00 | |
| EA3GEO | 2026-09-01 23:52:49 | 41.43055 | 2.66534 | 57° | 35km/h | 18136m | 4.9m/s | 0°C | 0% | 0hPa | 0V | 00:00:00 | 00:00:00 | 00:00:00 | |
| EA3GEO | 2026-09-01 23:52:43 | 41.43024 | 2.66506 | 41° | 24km/h | 18108m | 4.4m/s | 0°C | 0% | 0hPa | 0V | 00:00:00 | 00:00:00 | 00:00:00 | |
| EA3GEO | 2026-09-01 23:52:37 | 41.42998 | 2.66463 | 39° | 27km/h | 18080m | 4.9m/s | 0°C | 0% | 0hPa | 0V | 00:00:00 | 00:00:00 | 00:00:00 | |
| EA3GEO | 2026-09-01 23:52:19 | 41.42910 | 2.66391 | 49° | 16km/h | 17997m | 4.8m/s | 0°C | 0% | 0hPa | 0V | 00:00:00 | 00:00:00 | 00:00:00 | |
| EA3GEO | 2026-09-01 23:52:13 | 41.42878 | 2.66360 | 70° | 20km/h | 17967m | 6.1m/s | 0°C | 0% | 0hPa | 0V | 00:00:00 | 00:00:00 | 00:00:00 | |
| EA3GEO | 2026-09-01 23:52:04 | 41.42851 | 2.66315 | 53° | 33km/h | 17922m | 6.7m/s | 0°C | 0% | 0hPa | 0V | 00:00:00 | 00:00:00 | 00:00:00 | |
| EA3GEO | 2026-09-01 23:51:53 | 41.42828 | 2.66248 | 68° | 27km/h | 17866m | 6.3m/s | 0°C | 0% | 0hPa | 0V | 00:00:00 | 00:00:00 | 00:00:00 | |
| EA3GEO | 2026-09-01 23:51:46 | 41.42816 | 2.66197 | 72° | 26km/h | 17831m | 5.2m/s | 0°C | 0% | 0hPa | 0V | 00:00:00 | 00:00:00 | 00:00:00 | |
| EA3GEO | 2026-09-01 23:51:40 | 41.42817 | 2.66145 | 103° | 24km/h | 17801m | 3.8m/s | 0°C | 0% | 0hPa | 0V | 00:00:00 | 00:00:00 | 00:00:00 | |
| EA3GEO | 2026-09-01 23:51:34 | 41.42815 | 2.66095 | 84° | 33km/h | 17771m | 5.5m/s | 0°C | 0% | 0hPa | 0V | 00:00:00 | 00:00:00 | 00:00:00 | |
| EA3GEO | 2026-09-01 23:51:28 | 41.42811 | 2.66037 | 86° | 22km/h | 17740m | 5.8m/s | 0°C | 0% | 0hPa | 0V | 00:00:00 | 00:00:00 | 00:00:00 | |
| EA3GEO | 2026-09-01 23:51:22 | 41.42796 | 2.65988 | 59° | 29km/h | 17709m | 6.1m/s | 0°C | 0% | 0hPa | 0V | 00:00:00 | 00:00:00 | 00:00:00 | |
| EA3GEO | 2026-09-01 23:51:16 | 41.42781 | 2.65943 | 78° | 22km/h | 17678m | 4.5m/s | 0°C | 0% | 0hPa | 0V | 00:00:00 | 00:00:00 | 00:00:00 | |
| EA3GEO | 2026-09-01 23:51:10 | 41.42766 | 2.65899 | 61° | 24km/h | 17649m | 5.0m/s | 0°C | 0% | 0hPa | 0V | 00:00:00 | 00:00:00 | 00:00:00 | |
| EA3GEO | 2026-09-01 23:51:05 | 41.42753 | 2.65862 | 57° | 24km/h | 17623m | 3.8m/s | 0°C | 0% | 0hPa | 0V | 00:00:00 | 00:00:00 | 00:00:00 | |
| EA3GEO | 2026-09-01 23:50:57 | 41.42719 | 2.65804 | 54° | 26km/h | 17583m | 4.1m/s | 0°C | 0% | 0hPa | 0V | 00:00:00 | 00:00:00 | 00:00:00 | |
| EA3GEO | 2026-09-01 23:50:52 | 41.42699 | 2.65774 | 45° | 22km/h | 17556m | 4.8m/s | 0°C | 0% | 0hPa | 0V | 00:00:00 | 00:00:00 | 00:00:00 | |
| EA3GEO | 2026-09-01 23:50:46 | 41.42681 | 2.65735 | 61° | 24km/h | 17527m | 4.1m/s | 0°C | 0% | 0hPa | 0V | 00:00:00 | 00:00:00 | 00:00:00 | |
| EA3GEO | 2026-09-01 23:50:40 | 41.42660 | 2.65705 | 60° | 20km/h | 17496m | 3.2m/s | 0°C | 0% | 0hPa | 0V | 00:00:00 | 00:00:00 | 00:00:00 | |
| EA3GEO | 2026-09-01 23:50:34 | 41.42642 | 2.65670 | 46° | 18km/h | 17468m | 5.4m/s | 0°C | 0% | 0hPa | 0V | 00:00:00 | 00:00:00 | 00:00:00 | |
| EA3GEO | 2026-09-01 23:50:28 | 41.42623 | 2.65639 | 54° | 27km/h | 17441m | 5.5m/s | 0°C | 0% | 0hPa | 0V | 00:00:00 | 00:00:00 | 00:00:00 | |
| EA3GEO | 2026-09-01 23:50:22 | 41.42605 | 2.65613 | 55° | 16km/h | 17409m | 3.8m/s | 0°C | 0% | 0hPa | 0V | 00:00:00 | 00:00:00 | 00:00:00 | |
| EA3GEO | 2026-09-01 23:50:17 | 41.42599 | 2.65588 | 68° | 27km/h | 17385m | 6.7m/s | 0°C | 0% | 0hPa | 0V | 00:00:00 | 00:00:00 | 00:00:00 | |
| EA3GEO | 2026-09-01 23:50:12 | 41.42580 | 2.65566 | 218° | 4km/h | 17360m | 5.2m/s | 0°C | 0% | 0hPa | 0V | 00:00:00 | 00:00:00 | 00:00:00 | |
| EA3GEO | 2026-09-01 23:50:06 | 41.42582 | 2.65532 | 73° | 24km/h | 17329m | 4.9m/s | 0°C | 0% | 0hPa | 0V | 00:00:00 | 00:00:00 | 00:00:00 | |
| EA3GEO | 2026-09-01 23:50:00 | 41.42576 | 2.65495 | 116° | 7km/h | 17299m | 4.9m/s | 0°C | 0% | 0hPa | 0V | 00:00:00 | 00:00:00 | 00:00:00 | |
| EA3GEO | 2026-09-01 23:49:55 | 41.42579 | 2.65463 | 91° | 26km/h | 17273m | 4.9m/s | 0°C | 0% | 0hPa | 0V | 00:00:00 | 00:00:00 | 00:00:00 | |
| EA3GEO | 2026-09-01 23:49:50 | 41.42579 | 2.65428 | 131° | 11km/h | 17247m | 6.8m/s | 0°C | 0% | 0hPa | 0V | 00:00:00 | 00:00:00 | 00:00:00 | |
| EA3GEO | 2026-09-01 23:49:44 | 41.42593 | 2.65378 | 96° | 33km/h | 17214m | 6.5m/s | 0°C | 0% | 0hPa | 0V | 00:00:00 | 00:00:00 | 00:00:00 | |
| EA3GEO | 2026-09-01 23:49:39 | 41.42602 | 2.65349 | 105° | 24km/h | 17186m | 3.4m/s | 0°C | 0% | 0hPa | 0V | 00:00:00 | 00:00:00 | 00:00:00 | |
| EA3GEO | 2026-09-01 23:49:31 | 41.42632 | 2.65246 | 115° | 37km/h | 17139m | 6.1m/s | 0°C | 0% | 0hPa | 0V | 00:00:00 | 00:00:00 | 00:00:00 | |
| EA3GEO | 2026-09-01 23:49:25 | 41.42653 | 2.65166 | 120° | 46km/h | 17108m | 5.6m/s | 0°C | 0% | 0hPa | 0V | 00:00:00 | 00:00:00 | 00:00:00 | |
| EA3GEO | 2026-09-01 23:49:19 | 41.42678 | 2.65087 | 107° | 38km/h | 17079m | 4.6m/s | 0°C | 0% | 0hPa | 0V | 00:00:00 | 00:00:00 | 00:00:00 | |
| EA3GEO | 2026-09-01 23:49:13 | 41.42698 | 2.65013 | 126° | 40km/h | 17050m | 4.2m/s | 0°C | 0% | 0hPa | 0V | 00:00:00 | 00:00:00 | 00:00:00 | |
| EA3GEO | 2026-09-01 23:49:07 | 41.42716 | 2.64949 | 101° | 38km/h | 17022m | 5.7m/s | 0°C | 0% | 0hPa | 0V | 00:00:00 | 00:00:00 | 00:00:00 | |
| EA3GEO | 2026-09-01 23:49:02 | 41.42736 | 2.64876 | 112° | 49km/h | 16998m | 5.2m/s | 0°C | 0% | 0hPa | 0V | 00:00:00 | 00:00:00 | 00:00:00 | |
| EA3GEO | 2026-09-01 23:48:56 | 41.42754 | 2.64780 | 104° | 57km/h | 16969m | 4.8m/s | 0°C | 0% | 0hPa | 0V | 00:00:00 | 00:00:00 | 00:00:00 | |
| EA3GEO | 2026-09-01 23:48:51 | 41.42775 | 2.64697 | 110° | 44km/h | 16944m | 5.2m/s | 0°C | 0% | 0hPa | 0V | 00:00:00 | 00:00:00 | 00:00:00 | |
| EA3GEO | 2026-09-01 23:48:44 | 41.42801 | 2.64574 | 113° | 62km/h | 16911m | 3.3m/s | 0°C | 0% | 0hPa | 0V | 00:00:00 | 00:00:00 | 00:00:00 | |
| EA3GEO | 2026-09-01 23:48:37 | 41.42828 | 2.64451 | 103° | 58km/h | 16875m | 6.0m/s | 0°C | 0% | 0hPa | 0V | 00:00:00 | 00:00:00 | 00:00:00 | |
| EA3GEO | 2026-09-01 23:48:31 | 41.42853 | 2.64337 | 105° | 57km/h | 16847m | 4.4m/s | 0°C | 0% | 0hPa | 0V | 00:00:00 | 00:00:00 | 00:00:00 | |
| EA3GEO | 2026-09-01 23:48:26 | 41.42869 | 2.64235 | 103° | 68km/h | 16821m | 6.5m/s | 0°C | 0% | 0hPa | 0V | 00:00:00 | 00:00:00 | 00:00:00 | |
| EA3GEO | 2026-09-01 23:48:21 | 41.42882 | 2.64129 | 97° | 60km/h | 16795m | 2.7m/s | 0°C | 0% | 0hPa | 0V | 00:00:00 | 00:00:00 | 00:00:00 | |
| EA3GEO | 2026-09-01 23:48:14 | 41.42890 | 2.63973 | 94° | 69km/h | 16764m | 6.1m/s | 0°C | 0% | 0hPa | 0V | 00:00:00 | 00:00:00 | 00:00:00 | |
| EA3GEO | 2026-09-01 23:48:08 | 41.42892 | 2.63845 | 90° | 62km/h | 16734m | 5.3m/s | 0°C | 0% | 0hPa | 0V | 00:00:00 | 00:00:00 | 00:00:00 | |
| EA3GEO | 2026-09-01 23:48:03 | 41.42893 | 2.63741 | 93° | 66km/h | 16710m | 5.0m/s | 0°C | 0% | 0hPa | 0V | 00:00:00 | 00:00:00 | 00:00:00 | |
| EA3GEO | 2026-09-01 23:47:54 | 41.42896 | 2.63550 | 94° | 66km/h | 16666m | 3.8m/s | 0°C | 0% | 0hPa | 0V | 00:00:00 | 00:00:00 | 00:00:00 | |
| EA3GEO | 2026-09-01 23:47:44 | 41.42900 | 2.63328 | 90° | 69km/h | 16619m | 3.9m/s | 0°C | 0% | 0hPa | 0V | 00:00:00 | 00:00:00 | 00:00:00 | |
| EA3GEO | 2026-09-01 23:47:36 | 41.42911 | 2.63153 | 95° | 69km/h | 16582m | 4.9m/s | 0°C | 0% | 0hPa | 0V | 00:00:00 | 00:00:00 | 00:00:00 | |
| EA3GEO | 2026-09-01 23:47:31 | 41.42919 | 2.63051 | 98° | 57km/h | 16557m | 4.8m/s | 0°C | 0% | 0hPa | 0V | 00:00:00 | 00:00:00 | 00:00:00 | |
| EA3GEO | 2026-09-01 23:47:26 | 41.42933 | 2.62945 | 99° | 68km/h | 16534m | 4.5m/s | 0°C | 0% | 0hPa | 0V | 00:00:00 | 00:00:00 | 00:00:00 | |
| EA3GEO | 2026-09-01 23:47:11 | 41.42965 | 2.62563 | 94° | 66km/h | 16448m | 5.2m/s | 0°C | 0% | 0hPa | 0V | 00:00:00 | 00:00:00 | 00:00:00 | |
| EA3GEO | 2026-09-01 23:47:02 | 41.42966 | 2.62464 | 93° | 55km/h | 16425m | 5.9m/s | 0°C | 0% | 0hPa | 0V | 00:00:00 | 00:00:00 | 00:00:00 | |
| EA3GEO | 2026-09-01 23:46:56 | 41.42966 | 2.62341 | 88° | 64km/h | 16395m | 5.2m/s | 0°C | 0% | 0hPa | 0V | 00:00:00 | 00:00:00 | 00:00:00 | |
| EA3GEO | 2026-09-01 23:46:51 | 41.42962 | 2.62244 | 93° | 60km/h | 16370m | 5.6m/s | 0°C | 0% | 0hPa | 0V | 00:00:00 | 00:00:00 | 00:00:00 | |
| EA3GEO | 2026-09-01 23:46:45 | 41.42960 | 2.62117 | 87° | 57km/h | 16341m | 4.8m/s | 0°C | 0% | 0hPa | 0V | 00:00:00 | 00:00:00 | 00:00:00 | |
| EA3GEO | 2026-09-01 23:46:37 | 41.42947 | 2.61960 | 89° | 58km/h | 16303m | 5.2m/s | 0°C | 0% | 0hPa | 0V | 00:00:00 | 00:00:00 | 00:00:00 | |
| EA3GEO | 2026-09-01 23:46:31 | 41.42941 | 2.61847 | 83° | 60km/h | 16277m | 5.0m/s | 0°C | 0% | 0hPa | 0V | 00:00:00 | 00:00:00 | 00:00:00 | |
| EA3GEO | 2026-09-01 23:46:26 | 41.42926 | 2.61740 | 77° | 49km/h | 16249m | 5.1m/s | 0°C | 0% | 0hPa | 0V | 00:00:00 | 00:00:00 | 00:00:00 | |
| EA3GEO | 2026-09-01 23:46:19 | 41.42908 | 2.61634 | 82° | 55km/h | 16219m | 4.8m/s | 0°C | 0% | 0hPa | 0V | 00:00:00 | 00:00:00 | 00:00:00 | |
| EA3GEO | 2026-09-01 23:46:14 | 41.42898 | 2.61551 | 80° | 47km/h | 16193m | 6.0m/s | 0°C | 0% | 0hPa | 0V | 00:00:00 | 00:00:00 | 00:00:00 | |
| EA3GEO | 2026-09-01 23:46:08 | 41.42884 | 2.61453 | 84° | 49km/h | 16167m | 6.3m/s | 0°C | 0% | 0hPa | 0V | 00:00:00 | 00:00:00 | 00:00:00 | |
| EA3GEO | 2026-09-01 23:46:02 | 41.42876 | 2.61356 | 76° | 49km/h | 16140m | 3.8m/s | 0°C | 0% | 0hPa | 0V | 00:00:00 | 00:00:00 | 00:00:00 | |
| EA3GEO | 2026-09-01 23:45:57 | 41.42869 | 2.61266 | 90° | 49km/h | 16116m | 4.4m/s | 0°C | 0% | 0hPa | 0V | 00:00:00 | 00:00:00 | 00:00:00 | |
| EA3GEO | 2026-09-01 23:45:51 | 41.42867 | 2.61160 | 87° | 53km/h | 16089m | 6.1m/s | 0°C | 0% | 0hPa | 0V | 00:00:00 | 00:00:00 | 00:00:00 | |
| EA3GEO | 2026-09-01 23:45:46 | 41.42862 | 2.61066 | 91° | 57km/h | 16065m | 3.7m/s | 0°C | 0% | 0hPa | 0V | 00:00:00 | 00:00:00 | 00:00:00 | |
| EA3GEO | 2026-09-01 23:45:39 | 41.42862 | 2.60933 | 86° | 55km/h | 16035m | 6.2m/s | 0°C | 0% | 0hPa | 0V | 00:00:00 | 00:00:00 | 00:00:00 | |
| EA3GEO | 2026-09-01 23:45:33 | 41.42855 | 2.60823 | 88° | 58km/h | 16007m | 4.2m/s | 0°C | 0% | 0hPa | 0V | 00:00:00 | 00:00:00 | 00:00:00 | |
| EA3GEO | 2026-09-01 23:45:27 | 41.42852 | 2.60715 | 88° | 49km/h | 15980m | 6.9m/s | 0°C | 0% | 0hPa | 0V | 00:00:00 | 00:00:00 | 00:00:00 | |
| EA3GEO | 2026-09-01 23:45:23 | 41.42853 | 2.60635 | 99° | 49km/h | 15954m | 4.9m/s | 0°C | 0% | 0hPa | 0V | 00:00:00 | 00:00:00 | 00:00:00 | |
| EA3GEO | 2026-09-01 23:45:17 | 41.42859 | 2.60530 | 93° | 51km/h | 15927m | 5.9m/s | 0°C | 0% | 0hPa | 0V | 00:00:00 | 00:00:00 | 00:00:00 | |
| EA3GEO | 2026-09-01 23:45:10 | 41.42867 | 2.60429 | 101° | 51km/h | 15901m | 6.5m/s | 0°C | 0% | 0hPa | 0V | 00:00:00 | 00:00:00 | 00:00:00 | |
| EA3GEO | 2026-09-01 23:45:03 | 41.42876 | 2.60301 | 100° | 64km/h | 15867m | 6.9m/s | 0°C | 0% | 0hPa | 0V | 00:00:00 | 00:00:00 | 00:00:00 | |
| EA3GEO | 2026-09-01 23:44:57 | 41.42892 | 2.60176 | 96° | 58km/h | 15835m | 5.6m/s | 0°C | 0% | 0hPa | 0V | 00:00:00 | 00:00:00 | 00:00:00 | |
| EA3GEO | 2026-09-01 23:44:50 | 41.42904 | 2.60032 | 99° | 60km/h | 15803m | 4.1m/s | 0°C | 0% | 0hPa | 0V | 00:00:00 | 00:00:00 | 00:00:00 | |
| EA3GEO | 2026-09-01 23:44:45 | 41.42911 | 2.59925 | 94° | 69km/h | 15778m | 6.9m/s | 0°C | 0% | 0hPa | 0V | 00:00:00 | 00:00:00 | 00:00:00 | |
| EA3GEO | 2026-09-01 23:44:39 | 41.42915 | 2.59788 | 94° | 62km/h | 15749m | 5.8m/s | 0°C | 0% | 0hPa | 0V | 00:00:00 | 00:00:00 | 00:00:00 | |
| EA3GEO | 2026-09-01 23:44:33 | 41.42923 | 2.59651 | 96° | 75km/h | 15719m | 4.3m/s | 0°C | 0% | 0hPa | 0V | 00:00:00 | 00:00:00 | 00:00:00 | |
| EA3GEO | 2026-09-01 23:44:27 | 41.42929 | 2.59517 | 96° | 66km/h | 15691m | 3.7m/s | 0°C | 0% | 0hPa | 0V | 00:00:00 | 00:00:00 | 00:00:00 | |
| EA3GEO | 2026-09-01 23:44:21 | 41.42936 | 2.59371 | 91° | 64km/h | 15670m | 4.5m/s | 0°C | 0% | 0hPa | 0V | 00:00:00 | 00:00:00 | 00:00:00 | |
| EA3GEO | 2026-09-01 23:44:15 | 41.42936 | 2.59233 | 90° | 77km/h | 15637m | 3.8m/s | 0°C | 0% | 0hPa | 0V | 00:00:00 | 00:00:00 | 00:00:00 | |
| EA3GEO | 2026-09-01 23:44:06 | 41.42936 | 2.59025 | 90° | 73km/h | 15593m | 4.6m/s | 0°C | 0% | 0hPa | 0V | 00:00:00 | 00:00:00 | 00:00:00 | |
| EA3GEO | 2026-09-01 23:44:00 | 41.42936 | 2.58885 | 89° | 66km/h | 15563m | 5.5m/s | 0°C | 0% | 0hPa | 0V | 00:00:00 | 00:00:00 | 00:00:00 | |
| EA3GEO | 2026-09-01 23:43:54 | 41.42934 | 2.58745 | 86° | 73km/h | 15535m | 4.4m/s | 0°C | 0% | 0hPa | 0V | 00:00:00 | 00:00:00 | 00:00:00 | |
| EA3GEO | 2026-09-01 23:43:48 | 41.42927 | 2.58609 | 94° | 66km/h | 15506m | 4.2m/s | 0°C | 0% | 0hPa | 0V | 00:00:00 | 00:00:00 | 00:00:00 | |
| EA3GEO | 2026-09-01 23:43:42 | 41.42916 | 2.58462 | 78° | 71km/h | 15479m | 4.8m/s | 0°C | 0% | 0hPa | 0V | 00:00:00 | 00:00:00 | 00:00:00 | |
| EA3GEO | 2026-09-01 23:43:36 | 41.42906 | 2.58329 | 84° | 66km/h | 15451m | 5.4m/s | 0°C | 0% | 0hPa | 0V | 00:00:00 | 00:00:00 | 00:00:00 | |
| EA3GEO | 2026-09-01 23:43:29 | 41.42894 | 2.58171 | 83° | 66km/h | 15420m | 6.4m/s | 0°C | 0% | 0hPa | 0V | 00:00:00 | 00:00:00 | 00:00:00 | |
| EA3GEO | 2026-09-01 23:43:24 | 41.42884 | 2.58063 | 88° | 64km/h | 15395m | 5.2m/s | 0°C | 0% | 0hPa | 0V | 00:00:00 | 00:00:00 | 00:00:00 | |
| EA3GEO | 2026-09-01 23:43:18 | 41.42872 | 2.57926 | 79° | 66km/h | 15368m | 6.9m/s | 0°C | 0% | 0hPa | 0V | 00:00:00 | 00:00:00 | 00:00:00 | |
| EA3GEO | 2026-09-01 23:43:13 | 41.42855 | 2.57827 | 83° | 55km/h | 15344m | 5.3m/s | 0°C | 0% | 0hPa | 0V | 00:00:00 | 00:00:00 | 00:00:00 | |
| EA3GEO | 2026-09-01 23:43:03 | 41.42819 | 2.57640 | 77° | 57km/h | 15298m | 6.1m/s | 0°C | 0% | 0hPa | 0V | 00:00:00 | 00:00:00 | 00:00:00 | |
| EA3GEO | 2026-09-01 23:42:57 | 41.42801 | 2.57518 | 80° | 60km/h | 15271m | 4.2m/s | 0°C | 0% | 0hPa | 0V | 00:00:00 | 00:00:00 | 00:00:00 | |
| EA3GEO | 2026-09-01 23:42:52 | 41.42792 | 2.57423 | 92° | 62km/h | 15249m | 7.0m/s | 0°C | 0% | 0hPa | 0V | 00:00:00 | 00:00:00 | 00:00:00 | |
| EA3GEO | 2026-09-01 23:42:43 | 41.42779 | 2.57246 | 91° | 58km/h | 15206m | 4.6m/s | 0°C | 0% | 0hPa | 0V | 00:00:00 | 00:00:00 | 00:00:00 | |
| EA3GEO | 2026-09-01 23:42:37 | 41.42773 | 2.57123 | 82° | 51km/h | 15181m | 5.7m/s | 0°C | 0% | 0hPa | 0V | 00:00:00 | 00:00:00 | 00:00:00 | |
| EA3GEO | 2026-09-01 23:42:31 | 41.42764 | 2.57020 | 86° | 58km/h | 15156m | 5.0m/s | 0°C | 0% | 0hPa | 0V | 00:00:00 | 00:00:00 | 00:00:00 | |
| EA3GEO | 2026-09-01 23:42:26 | 41.42760 | 2.56928 | 83° | 42km/h | 15135m | 4.9m/s | 0°C | 0% | 0hPa | 0V | 00:00:00 | 00:00:00 | 00:00:00 | |
| EA3GEO | 2026-09-01 23:42:21 | 41.42756 | 2.56853 | 84° | 58km/h | 15111m | 5.8m/s | 0°C | 0% | 0hPa | 0V | 00:00:00 | 00:00:00 | 00:00:00 | |
| EA3GEO | 2026-09-01 23:42:11 | 41.42756 | 2.56677 | 94° | 57km/h | 15065m | 6.8m/s | 0°C | 0% | 0hPa | 0V | 00:00:00 | 00:00:00 | 00:00:00 | |
| EA3GEO | 2026-09-01 23:42:04 | 41.42762 | 2.56548 | 90° | 60km/h | 15028m | 3.6m/s | 0°C | 0% | 0hPa | 0V | 00:00:00 | 00:00:00 | 00:00:00 | |
| EA3GEO | 2026-09-01 23:41:59 | 41.42772 | 2.56452 | 103° | 60km/h | 15004m | 5.1m/s | 0°C | 0% | 0hPa | 0V | 00:00:00 | 00:00:00 | 00:00:00 | |
| EA3GEO | 2026-09-01 23:41:53 | 41.42779 | 2.56337 | 94° | 66km/h | 14977m | 2.9m/s | 0°C | 0% | 0hPa | 0V | 00:00:00 | 00:00:00 | 00:00:00 | |
| EA3GEO | 2026-09-01 23:41:40 | 41.42812 | 2.56085 | 92° | 49km/h | 14910m | 4.8m/s | 0°C | 0% | 0hPa | 0V | 00:00:00 | 00:00:00 | 00:00:00 | |
| EA3GEO | 2026-09-01 23:41:34 | 41.42822 | 2.55950 | 94° | 78km/h | 14874m | 4.2m/s | 0°C | 0% | 0hPa | 0V | 00:00:00 | 00:00:00 | 00:00:00 | |
| EA3GEO | 2026-09-01 23:41:28 | 41.42822 | 2.55817 | 92° | 69km/h | 14839m | 6.0m/s | 0°C | 0% | 0hPa | 0V | 00:00:00 | 00:00:00 | 00:00:00 | |
| EA3GEO | 2026-09-01 23:41:21 | 41.42834 | 2.55651 | 90° | 71km/h | 14798m | 4.9m/s | 0°C | 0% | 0hPa | 0V | 00:00:00 | 00:00:00 | 00:00:00 | |
| EA3GEO | 2026-09-01 23:41:15 | 41.42825 | 2.55512 | 94° | 77km/h | 14762m | 5.0m/s | 0°C | 0% | 0hPa | 0V | 00:00:00 | 00:00:00 | 00:00:00 | |
| EA3GEO | 2026-09-01 23:41:09 | 41.42818 | 2.55370 | 80° | 69km/h | 14723m | 4.2m/s | 0°C | 0% | 0hPa | 0V | 00:00:00 | 00:00:00 | 00:00:00 | |
| EA3GEO | 2026-09-01 23:41:03 | 41.42806 | 2.55218 | 86° | 66km/h | 14690m | 4.6m/s | 0°C | 0% | 0hPa | 0V | 00:00:00 | 00:00:00 | 00:00:00 | |
| EA3GEO | 2026-09-01 23:40:57 | 41.42790 | 2.55078 | 80° | 88km/h | 14655m | 5.3m/s | 0°C | 0% | 0hPa | 0V | 00:00:00 | 00:00:00 | 00:00:00 | |
| EA3GEO | 2026-09-01 23:40:47 | 41.42761 | 2.54816 | 82° | 80km/h | 14604m | 4.9m/s | 0°C | 0% | 0hPa | 0V | 00:00:00 | 00:00:00 | 00:00:00 | |
| EA3GEO | 2026-09-01 23:40:42 | 41.42733 | 2.54678 | 77° | 86km/h | 14575m | 4.2m/s | 0°C | 0% | 0hPa | 0V | 00:00:00 | 00:00:00 | 00:00:00 | |
| EA3GEO | 2026-09-01 23:40:36 | 41.42714 | 2.54516 | 81° | 84km/h | 14544m | 5.6m/s | 0°C | 0% | 0hPa | 0V | 00:00:00 | 00:00:00 | 00:00:00 | |
| EA3GEO | 2026-09-01 23:40:30 | 41.42684 | 2.54357 | 79° | 82km/h | 14508m | 4.0m/s | 0°C | 0% | 0hPa | 0V | 00:00:00 | 00:00:00 | 00:00:00 | |
| EA3GEO | 2026-09-01 23:40:19 | 41.42644 | 2.54066 | 88° | 71km/h | 14445m | 7.0m/s | 0°C | 0% | 0hPa | 0V | 00:00:00 | 00:00:00 | 00:00:00 | |
| EA3GEO | 2026-09-01 23:40:14 | 41.42625 | 2.53945 | 79° | 78km/h | 14416m | 4.0m/s | 0°C | 0% | 0hPa | 0V | 00:00:00 | 00:00:00 | 00:00:00 | |
| EA3GEO | 2026-09-01 23:40:08 | 41.42604 | 2.53799 | 75° | 69km/h | 14385m | 4.5m/s | 0°C | 0% | 0hPa | 0V | 00:00:00 | 00:00:00 | 00:00:00 | |
| EA3GEO | 2026-09-01 23:40:02 | 41.42578 | 2.53666 | 78° | 73km/h | 14345m | 1.9m/s | 0°C | 0% | 0hPa | 0V | 00:00:00 | 00:00:00 | 00:00:00 | |
| EA3GEO | 2026-09-01 23:39:57 | 41.42557 | 2.53556 | 74° | 69km/h | 14316m | 2.7m/s | 0°C | 0% | 0hPa | 0V | 00:00:00 | 00:00:00 | 00:00:00 | |
| EA3GEO | 2026-09-01 23:39:52 | 41.42530 | 2.53449 | 80° | 77km/h | 14290m | 6.5m/s | 0°C | 0% | 0hPa | 0V | 00:00:00 | 00:00:00 | 00:00:00 | |
| EA3GEO | 2026-09-01 23:39:45 | 41.42504 | 2.53286 | 77° | 60km/h | 14249m | 4.7m/s | 0°C | 0% | 0hPa | 0V | 00:00:00 | 00:00:00 | 00:00:00 | |
| EA3GEO | 2026-09-01 23:39:39 | 41.42473 | 2.53159 | 79° | 71km/h | 14214m | 4.7m/s | 0°C | 0% | 0hPa | 0V | 00:00:00 | 00:00:00 | 00:00:00 | |
| EA3GEO | 2026-09-01 23:39:34 | 41.42459 | 2.53050 | 79° | 64km/h | 14185m | 2.6m/s | 0°C | 0% | 0hPa | 0V | 00:00:00 | 00:00:00 | 00:00:00 | |
| EA3GEO | 2026-09-01 23:39:28 | 41.42443 | 2.52914 | 89° | 77km/h | 14156m | 4.2m/s | 0°C | 0% | 0hPa | 0V | 00:00:00 | 00:00:00 | 00:00:00 | |
| EA3GEO | 2026-09-01 23:39:22 | 41.42432 | 2.52758 | 85° | 73km/h | 14126m | 7.9m/s | 0°C | 0% | 0hPa | 0V | 00:00:00 | 00:00:00 | 00:00:00 | |
| EA3GEO | 2026-09-01 23:39:17 | 41.42420 | 2.52644 | 86° | 71km/h | 14094m | 6.3m/s | 0°C | 0% | 0hPa | 0V | 00:00:00 | 00:00:00 | 00:00:00 | |
| EA3GEO | 2026-09-01 23:39:11 | 41.42418 | 2.52502 | 87° | 69km/h | 14054m | 5.2m/s | 0°C | 0% | 0hPa | 0V | 00:00:00 | 00:00:00 | 00:00:00 | |
| EA3GEO | 2026-09-01 23:39:06 | 41.42405 | 2.52384 | 88° | 69km/h | 14026m | 4.0m/s | 0°C | 0% | 0hPa | 0V | 00:00:00 | 00:00:00 | 00:00:00 | |
| EA3GEO | 2026-09-01 23:39:00 | 41.42399 | 2.52256 | 83° | 69km/h | 13996m | 10.7m/s | 0°C | 0% | 0hPa | 0V | 00:00:00 | 00:00:00 | 00:00:00 | |
| EA3GEO | 2026-09-01 23:38:54 | 41.42390 | 2.52101 | 91° | 77km/h | 13961m | 9.4m/s | 0°C | 0% | 0hPa | 0V | 00:00:00 | 00:00:00 | 00:00:00 | |
| EA3GEO | 2026-09-01 23:38:48 | 41.42377 | 2.51961 | 81° | 68km/h | 13926m | 6.6m/s | 0°C | 0% | 0hPa | 0V | 00:00:00 | 00:00:00 | 00:00:00 | |
| EA3GEO | 2026-09-01 23:38:41 | 41.42364 | 2.51792 | 89° | 60km/h | 13878m | 7.7m/s | 0°C | 0% | 0hPa | 0V | 00:00:00 | 00:00:00 | 00:00:00 | |
| EA3GEO | 2026-09-01 23:38:35 | 41.42352 | 2.51657 | 92° | 80km/h | 13844m | 4.6m/s | 0°C | 0% | 0hPa | 0V | 00:00:00 | 00:00:00 | 00:00:00 | |
| EA3GEO | 2026-09-01 23:38:29 | 41.42342 | 2.51511 | 83° | 60km/h | 13807m | 5.0m/s | 0°C | 0% | 0hPa | 0V | 00:00:00 | 00:00:00 | 00:00:00 | |
| EA3GEO | 2026-09-01 23:38:23 | 41.42332 | 2.51377 | 83° | 68km/h | 13777m | 6.1m/s | 0°C | 0% | 0hPa | 0V | 00:00:00 | 00:00:00 | 00:00:00 | |
| EA3GEO | 2026-09-01 23:38:17 | 41.42317 | 2.51247 | 82° | 69km/h | 13745m | 7.7m/s | 0°C | 0% | 0hPa | 0V | 00:00:00 | 00:00:00 | 00:00:00 | |
| EA3GEO | 2026-09-01 23:38:11 | 41.42305 | 2.51103 | 82° | 58km/h | 13708m | 8.3m/s | 0°C | 0% | 0hPa | 0V | 00:00:00 | 00:00:00 | 00:00:00 | |
| EA3GEO | 2026-09-01 23:38:06 | 41.42288 | 2.50988 | 81° | 75km/h | 13679m | 2.9m/s | 0°C | 0% | 0hPa | 0V | 00:00:00 | 00:00:00 | 00:00:00 | |
| EA3GEO | 2026-09-01 23:38:01 | 41.42276 | 2.50877 | 76° | 64km/h | 13651m | 7.4m/s | 0°C | 0% | 0hPa | 0V | 00:00:00 | 00:00:00 | 00:00:00 | |
| EA3GEO | 2026-09-01 23:37:56 | 41.42260 | 2.50758 | 87° | 68km/h | 13616m | 5.6m/s | 0°C | 0% | 0hPa | 0V | 00:00:00 | 00:00:00 | 00:00:00 | |
| EA3GEO | 2026-09-01 23:37:50 | 41.42235 | 2.50634 | 76° | 66km/h | 13584m | 3.3m/s | 0°C | 0% | 0hPa | 0V | 00:00:00 | 00:00:00 | 00:00:00 | |
| EA3GEO | 2026-09-01 23:37:44 | 41.42223 | 2.50495 | 88° | 62km/h | 13555m | 3.1m/s | 0°C | 0% | 0hPa | 0V | 00:00:00 | 00:00:00 | 00:00:00 | |
| EA3GEO | 2026-09-01 23:37:38 | 41.42214 | 2.50356 | 87° | 78km/h | 13519m | 5.2m/s | 0°C | 0% | 0hPa | 0V | 00:00:00 | 00:00:00 | 00:00:00 | |
| EA3GEO | 2026-09-01 23:37:32 | 41.42204 | 2.50216 | 95° | 68km/h | 13482m | 4.6m/s | 0°C | 0% | 0hPa | 0V | 00:00:00 | 00:00:00 | 00:00:00 | |
| EA3GEO | 2026-09-01 23:37:26 | 41.42197 | 2.50079 | 83° | 66km/h | 13450m | 10.6m/s | 0°C | 0% | 0hPa | 0V | 00:00:00 | 00:00:00 | 00:00:00 | |
| EA3GEO | 2026-09-01 23:37:20 | 41.42188 | 2.49929 | 84° | 66km/h | 13415m | 8.9m/s | 0°C | 0% | 0hPa | 0V | 00:00:00 | 00:00:00 | 00:00:00 | |
| EA3GEO | 2026-09-01 23:37:15 | 41.42178 | 2.49822 | 82° | 71km/h | 13386m | 7.1m/s | 0°C | 0% | 0hPa | 0V | 00:00:00 | 00:00:00 | 00:00:00 | |
| EA3GEO | 2026-09-01 23:37:10 | 41.42168 | 2.49700 | 83° | 77km/h | 13360m | 4.8m/s | 0°C | 0% | 0hPa | 0V | 00:00:00 | 00:00:00 | 00:00:00 | |
| EA3GEO | 2026-09-01 23:37:04 | 41.42149 | 2.49548 | 86° | 77km/h | 13319m | 7.2m/s | 0°C | 0% | 0hPa | 0V | 00:00:00 | 00:00:00 | 00:00:00 | |
| EA3GEO | 2026-09-01 23:36:59 | 41.42130 | 2.49430 | 78° | 68km/h | 13295m | 2.7m/s | 0°C | 0% | 0hPa | 0V | 00:00:00 | 00:00:00 | 00:00:00 | |
| EA3GEO | 2026-09-01 23:36:53 | 41.42113 | 2.49284 | 85° | 78km/h | 13254m | 2.1m/s | 0°C | 0% | 0hPa | 0V | 00:00:00 | 00:00:00 | 00:00:00 | |
| EA3GEO | 2026-09-01 23:36:47 | 41.42092 | 2.49150 | 77° | 64km/h | 13217m | 5.2m/s | 0°C | 0% | 0hPa | 0V | 00:00:00 | 00:00:00 | 00:00:00 | |
| EA3GEO | 2026-09-01 23:36:41 | 41.42074 | 2.49012 | 82° | 69km/h | 13185m | 3.4m/s | 0°C | 0% | 0hPa | 0V | 00:00:00 | 00:00:00 | 00:00:00 | |
| EA3GEO | 2026-09-01 23:36:36 | 41.42066 | 2.48892 | 85° | 77km/h | 13157m | 13.6m/s | 0°C | 0% | 0hPa | 0V | 00:00:00 | 00:00:00 | 00:00:00 | |
| EA3GEO | 2026-09-01 23:36:30 | 41.42051 | 2.48745 | 84° | 73km/h | 13117m | 4.6m/s | 0°C | 0% | 0hPa | 0V | 00:00:00 | 00:00:00 | 00:00:00 | |
| EA3GEO | 2026-09-01 23:36:25 | 41.42044 | 2.48632 | 86° | 71km/h | 13090m | 8.7m/s | 0°C | 0% | 0hPa | 0V | 00:00:00 | 00:00:00 | 00:00:00 | |
| EA3GEO | 2026-09-01 23:36:20 | 41.42042 | 2.48506 | 88° | 66km/h | 13056m | 6.1m/s | 0°C | 0% | 0hPa | 0V | 00:00:00 | 00:00:00 | 00:00:00 | |
| EA3GEO | 2026-09-01 23:36:14 | 41.42034 | 2.48356 | 92° | 78km/h | 13020m | 4.7m/s | 0°C | 0% | 0hPa | 0V | 00:00:00 | 00:00:00 | 00:00:00 | |
| EA3GEO | 2026-09-01 23:36:08 | 41.42034 | 2.48207 | 86° | 78km/h | 12985m | 4.8m/s | 0°C | 0% | 0hPa | 0V | 00:00:00 | 00:00:00 | 00:00:00 | |
| EA3GEO | 2026-09-01 23:36:03 | 41.42024 | 2.48078 | 90° | 68km/h | 12953m | 5.5m/s | 0°C | 0% | 0hPa | 0V | 00:00:00 | 00:00:00 | 00:00:00 | |
| EA3GEO | 2026-09-01 23:35:57 | 41.42019 | 2.47922 | 86° | 86km/h | 12912m | 6.2m/s | 0°C | 0% | 0hPa | 0V | 00:00:00 | 00:00:00 | 00:00:00 | |
| EA3GEO | 2026-09-01 23:35:52 | 41.42010 | 2.47792 | 87° | 71km/h | 12886m | 9.6m/s | 0°C | 0% | 0hPa | 0V | 00:00:00 | 00:00:00 | 00:00:00 | |
| EA3GEO | 2026-09-01 23:35:46 | 41.42003 | 2.47618 | 89° | 84km/h | 12852m | 11.2m/s | 0°C | 0% | 0hPa | 0V | 00:00:00 | 00:00:00 | 00:00:00 | |
| EA3GEO | 2026-09-01 23:35:40 | 41.41991 | 2.47462 | 88° | 84km/h | 12811m | 3.8m/s | 0°C | 0% | 0hPa | 0V | 00:00:00 | 00:00:00 | 00:00:00 | |
| EA3GEO | 2026-09-01 23:35:33 | 41.41980 | 2.47258 | 89° | 86km/h | 12772m | 9.2m/s | 0°C | 0% | 0hPa | 0V | 00:00:00 | 00:00:00 | 00:00:00 | |
| EA3GEO | 2026-09-01 23:35:27 | 41.41965 | 2.47075 | 84° | 89km/h | 12730m | 3.3m/s | 0°C | 0% | 0hPa | 0V | 00:00:00 | 00:00:00 | 00:00:00 | |
| EA3GEO | 2026-09-01 23:35:21 | 41.41960 | 2.46891 | 87° | 95km/h | 12700m | 1.5m/s | 0°C | 0% | 0hPa | 0V | 00:00:00 | 00:00:00 | 00:00:00 | |
| EA3GEO | 2026-09-01 23:35:16 | 41.41947 | 2.46743 | 88° | 88km/h | 12671m | 4.9m/s | 0°C | 0% | 0hPa | 0V | 00:00:00 | 00:00:00 | 00:00:00 | |
| EA3GEO | 2026-09-01 23:35:10 | 41.41941 | 2.46561 | 82° | 86km/h | 12635m | 7.2m/s | 0°C | 0% | 0hPa | 0V | 00:00:00 | 00:00:00 | 00:00:00 | |
| EA3GEO | 2026-09-01 23:35:05 | 41.41932 | 2.46415 | 91° | 86km/h | 12607m | 8.9m/s | 0°C | 0% | 0hPa | 0V | 00:00:00 | 00:00:00 | 00:00:00 | |
| EA3GEO | 2026-09-01 23:35:00 | 41.41925 | 2.46271 | 76° | 91km/h | 12581m | 4.8m/s | 0°C | 0% | 0hPa | 0V | 00:00:00 | 00:00:00 | 00:00:00 | |
| EA3GEO | 2026-09-01 23:34:54 | 41.41904 | 2.46101 | 95° | 88km/h | 12546m | 15.0m/s | 0°C | 0% | 0hPa | 0V | 00:00:00 | 00:00:00 | 00:00:00 | |
| EA3GEO | 2026-09-01 23:34:47 | 41.41883 | 2.45903 | 87° | 91km/h | 12501m | 7.4m/s | 0°C | 0% | 0hPa | 0V | 00:00:00 | 00:00:00 | 00:00:00 | |
| EA3GEO | 2026-09-01 23:34:42 | 41.41868 | 2.45762 | 82° | 82km/h | 12471m | 6.9m/s | 0°C | 0% | 0hPa | 0V | 00:00:00 | 00:00:00 | 00:00:00 | |
| EA3GEO | 2026-09-01 23:34:36 | 41.41846 | 2.45575 | 81° | 93km/h | 12431m | 3.4m/s | 0°C | 0% | 0hPa | 0V | 00:00:00 | 00:00:00 | 00:00:00 | |
| EA3GEO | 2026-09-01 23:34:30 | 41.41819 | 2.45392 | 77° | 100km/h | 12399m | 8.7m/s | 0°C | 0% | 0hPa | 0V | 00:00:00 | 00:00:00 | 00:00:00 | |
| EA3GEO | 2026-09-01 23:34:25 | 41.41796 | 2.45233 | 79° | 99km/h | 12366m | 6.7m/s | 0°C | 0% | 0hPa | 0V | 00:00:00 | 00:00:00 | 00:00:00 | |
| EA3GEO | 2026-09-01 23:34:20 | 41.41766 | 2.45069 | 82° | 91km/h | 12336m | 7.2m/s | 0°C | 0% | 0hPa | 0V | 00:00:00 | 00:00:00 | 00:00:00 | |
| EA3GEO | 2026-09-01 23:34:14 | 41.41734 | 2.44880 | 79° | 113km/h | 12302m | 6.3m/s | 0°C | 0% | 0hPa | 0V | 00:00:00 | 00:00:00 | 00:00:00 | |
| EA3GEO | 2026-09-01 23:34:08 | 41.41700 | 2.44684 | 76° | 89km/h | 12264m | 4.3m/s | 0°C | 0% | 0hPa | 0V | 00:00:00 | 00:00:00 | 00:00:00 | |
| EA3GEO | 2026-09-01 23:33:56 | 41.41626 | 2.44305 | 74° | 97km/h | 12192m | 3.6m/s | 0°C | 0% | 0hPa | 0V | 00:00:00 | 00:00:00 | 00:00:00 | |
| EA3GEO | 2026-09-01 23:33:51 | 41.41588 | 2.44165 | 70° | 82km/h | 12163m | 8.4m/s | 0°C | 0% | 0hPa | 0V | 00:00:00 | 00:00:00 | 00:00:00 | |
| EA3GEO | 2026-09-01 23:33:44 | 41.41542 | 2.43963 | 72° | 80km/h | 12119m | 4.1m/s | 0°C | 0% | 0hPa | 0V | 00:00:00 | 00:00:00 | 00:00:00 | |
| EA3GEO | 2026-09-01 23:33:39 | 41.41508 | 2.43825 | 73° | 93km/h | 12089m | 3.4m/s | 0°C | 0% | 0hPa | 0V | 00:00:00 | 00:00:00 | 00:00:00 | |
| EA3GEO | 2026-09-01 23:33:34 | 41.41477 | 2.43689 | 76° | 78km/h | 12065m | 2.6m/s | 0°C | 0% | 0hPa | 0V | 00:00:00 | 00:00:00 | 00:00:00 | |
| EA3GEO | 2026-09-01 23:33:28 | 41.41433 | 2.43529 | 69° | 86km/h | 12022m | 4.3m/s | 0°C | 0% | 0hPa | 0V | 00:00:00 | 00:00:00 | 00:00:00 | |
| EA3GEO | 2026-09-01 23:33:23 | 41.41399 | 2.43404 | 72° | 78km/h | 11998m | 3.9m/s | 0°C | 0% | 0hPa | 0V | 00:00:00 | 00:00:00 | 00:00:00 | |
| EA3GEO | 2026-09-01 23:33:18 | 41.41369 | 2.43275 | 75° | 78km/h | 11963m | 2.7m/s | 0°C | 0% | 0hPa | 0V | 00:00:00 | 00:00:00 | 00:00:00 | |
| EA3GEO | 2026-09-01 23:33:06 | 41.41299 | 2.42980 | 74° | 78km/h | 11888m | 5.2m/s | 0°C | 0% | 0hPa | 0V | 00:00:00 | 00:00:00 | 00:00:00 | |
| EA3GEO | 2026-09-01 23:33:00 | 41.41270 | 2.42841 | 72° | 80km/h | 11857m | 2.2m/s | 0°C | 0% | 0hPa | 0V | 00:00:00 | 00:00:00 | 00:00:00 | |
| EA3GEO | 2026-09-01 23:32:54 | 41.41243 | 2.42694 | 76° | 71km/h | 11822m | 4.7m/s | 0°C | 0% | 0hPa | 0V | 00:00:00 | 00:00:00 | 00:00:00 | |
| EA3GEO | 2026-09-01 23:32:48 | 41.41212 | 2.42556 | 73° | 71km/h | 11790m | 2.8m/s | 0°C | 0% | 0hPa | 0V | 00:00:00 | 00:00:00 | 00:00:00 | |
| EA3GEO | 2026-09-01 23:32:43 | 41.41186 | 2.42444 | 75° | 64km/h | 11761m | 5.9m/s | 0°C | 0% | 0hPa | 0V | 00:00:00 | 00:00:00 | 00:00:00 | |
| EA3GEO | 2026-09-01 23:32:37 | 41.41164 | 2.42316 | 78° | 64km/h | 11726m | 4.4m/s | 0°C | 0% | 0hPa | 0V | 00:00:00 | 00:00:00 | 00:00:00 | |
| EA3GEO | 2026-09-01 23:32:32 | 41.41149 | 2.42212 | 77° | 57km/h | 11697m | 10.4m/s | 0°C | 0% | 0hPa | 0V | 00:00:00 | 00:00:00 | 00:00:00 | |
| EA3GEO | 2026-09-01 23:21:16 | 41.39686 | 2.24836 | 93° | 68km/h | 7669m | 4.0m/s | 0°C | 0% | 0hPa | 0V | 00:00:00 | 00:00:00 | 00:00:00 | |
| EA3GEO | 2026-09-01 23:20:55 | 41.39664 | 2.24417 | 89° | 53km/h | 7535m | 8.4m/s | 0°C | 0% | 0hPa | 0V | 00:00:00 | 00:00:00 | 00:00:00 | |
| EA3GEO | 2026-09-01 23:20:47 | 41.39656 | 2.24254 | 75° | 66km/h | 7476m | 6.5m/s | 0°C | 0% | 0hPa | 0V | 00:00:00 | 00:00:00 | 00:00:00 | |
| EA3GEO | 2026-09-01 23:20:36 | 41.39647 | 2.24035 | 88° | 47km/h | 7407m | 3.3m/s | 0°C | 0% | 0hPa | 0V | 00:00:00 | 00:00:00 | 00:00:00 | |
| EA3GEO | 2026-09-01 23:20:29 | 41.39632 | 2.23910 | 87° | 60km/h | 7365m | 3.9m/s | 0°C | 0% | 0hPa | 0V | 00:00:00 | 00:00:00 | 00:00:00 | |
| EA3GEO | 2026-09-01 23:20:22 | 41.39638 | 2.23789 | 106° | 51km/h | 7335m | 4.2m/s | 0°C | 0% | 0hPa | 0V | 00:00:00 | 00:00:00 | 00:00:00 | |
| EA3GEO | 2026-09-01 23:20:13 | 41.39638 | 2.23630 | 98° | 55km/h | 7274m | 3.7m/s | 0°C | 0% | 0hPa | 0V | 00:00:00 | 00:00:00 | 00:00:00 | |
| EA3GEO | 2026-09-01 23:20:07 | 41.39623 | 2.23508 | 75° | 57km/h | 7245m | 5.3m/s | 0°C | 0% | 0hPa | 0V | 00:00:00 | 00:00:00 | 00:00:00 | |
| EA3GEO | 2026-09-01 23:20:02 | 41.39626 | 2.23419 | 94° | 53km/h | 7211m | 4.3m/s | 0°C | 0% | 0hPa | 0V | 00:00:00 | 00:00:00 | 00:00:00 | |
| EA3GEO | 2026-09-01 23:19:55 | 41.39627 | 2.23290 | 100° | 47km/h | 7167m | 7.9m/s | 0°C | 0% | 0hPa | 0V | 00:00:00 | 00:00:00 | 00:00:00 | |
| EA3GEO | 2026-09-01 23:19:44 | 41.39611 | 2.23126 | 90° | 42km/h | 7098m | 7.2m/s | 0°C | 0% | 0hPa | 0V | 00:00:00 | 00:00:00 | 00:00:00 | |
| EA3GEO | 2026-09-01 23:19:35 | 41.39594 | 2.22986 | 72° | 46km/h | 7031m | 4.8m/s | 0°C | 0% | 0hPa | 0V | 00:00:00 | 00:00:00 | 00:00:00 | |
| EA3GEO | 2026-09-01 23:19:27 | 41.39591 | 2.22867 | 73° | 57km/h | 6984m | 7.6m/s | 0°C | 0% | 0hPa | 0V | 00:00:00 | 00:00:00 | 00:00:00 | |
| EA3GEO | 2026-09-01 23:19:21 | 41.39583 | 2.22759 | 82° | 51km/h | 6950m | 8.6m/s | 0°C | 0% | 0hPa | 0V | 00:00:00 | 00:00:00 | 00:00:00 | |
| EA3GEO | 2026-09-01 23:19:10 | 41.39573 | 2.22585 | 102° | 40km/h | 6867m | 5.8m/s | 0°C | 0% | 0hPa | 0V | 00:00:00 | 00:00:00 | 00:00:00 | |
| EA3GEO | 2026-09-01 23:19:04 | 41.39569 | 2.22517 | 73° | 37km/h | 6836m | 3.7m/s | 0°C | 0% | 0hPa | 0V | 00:00:00 | 00:00:00 | 00:00:00 | |
| EA3GEO | 2026-09-01 23:18:54 | 41.39573 | 2.22366 | 82° | 35km/h | 6777m | 3.4m/s | 0°C | 0% | 0hPa | 0V | 00:00:00 | 00:00:00 | 00:00:00 | |
| EA3GEO | 2026-09-01 23:18:43 | 41.39555 | 2.22213 | 76° | 47km/h | 6714m | 7.3m/s | 0°C | 0% | 0hPa | 0V | 00:00:00 | 00:00:00 | 00:00:00 | |
| EA3GEO | 2026-09-01 23:18:37 | 41.39536 | 2.22125 | 68° | 47km/h | 6674m | 3.9m/s | 0°C | 0% | 0hPa | 0V | 00:00:00 | 00:00:00 | 00:00:00 | |
| EA3GEO | 2026-09-01 23:18:32 | 41.39517 | 2.22054 | 88° | 51km/h | 6652m | 7.0m/s | 0°C | 0% | 0hPa | 0V | 00:00:00 | 00:00:00 | 00:00:00 | |
| EA3GEO | 2026-09-01 23:18:24 | 41.39506 | 2.21935 | 83° | 51km/h | 6590m | 7.6m/s | 0°C | 0% | 0hPa | 0V | 00:00:00 | 00:00:00 | 00:00:00 | |
| EA3GEO | 2026-09-01 23:18:19 | 41.39499 | 2.21842 | 82° | 51km/h | 6551m | 4.0m/s | 0°C | 0% | 0hPa | 0V | 00:00:00 | 00:00:00 | 00:00:00 | |
| EA3GEO | 2026-09-01 23:18:13 | 41.39484 | 2.21736 | 87° | 60km/h | 6521m | 3.3m/s | 0°C | 0% | 0hPa | 0V | 00:00:00 | 00:00:00 | 00:00:00 | |
| EA3GEO | 2026-09-01 23:18:07 | 41.39477 | 2.21630 | 77° | 46km/h | 6479m | 6.1m/s | 0°C | 0% | 0hPa | 0V | 00:00:00 | 00:00:00 | 00:00:00 | |
| EA3GEO | 2026-09-01 23:18:01 | 41.39474 | 2.21545 | 96° | 47km/h | 6439m | 7.8m/s | 0°C | 0% | 0hPa | 0V | 00:00:00 | 00:00:00 | 00:00:00 | |
| EA3GEO | 2026-09-01 23:17:56 | 41.39471 | 2.21463 | 70° | 51km/h | 6402m | 7.8m/s | 0°C | 0% | 0hPa | 0V | 00:00:00 | 00:00:00 | 00:00:00 | |
| EA3GEO | 2026-09-01 23:17:51 | 41.39455 | 2.21376 | 91° | 47km/h | 6374m | 7.6m/s | 0°C | 0% | 0hPa | 0V | 00:00:00 | 00:00:00 | 00:00:00 | |
| EA3GEO | 2026-09-01 23:17:45 | 41.39445 | 2.21278 | 77° | 47km/h | 6339m | 5.7m/s | 0°C | 0% | 0hPa | 0V | 00:00:00 | 00:00:00 | 00:00:00 | |
| EA3GEO | 2026-09-01 23:17:38 | 41.39426 | 2.21174 | 78° | 46km/h | 6291m | 4.5m/s | 0°C | 0% | 0hPa | 0V | 00:00:00 | 00:00:00 | 00:00:00 | |
| EA3GEO | 2026-09-01 23:17:33 | 41.39413 | 2.21096 | 83° | 46km/h | 6259m | 3.7m/s | 0°C | 0% | 0hPa | 0V | 00:00:00 | 00:00:00 | 00:00:00 | |
| EA3GEO | 2026-09-01 23:17:22 | 41.39386 | 2.20925 | 87° | 47km/h | 6203m | 7.3m/s | 0°C | 0% | 0hPa | 0V | 00:00:00 | 00:00:00 | 00:00:00 | |
| EA3GEO | 2026-09-01 23:17:15 | 41.39369 | 2.20820 | 78° | 47km/h | 6156m | 3.3m/s | 0°C | 0% | 0hPa | 0V | 00:00:00 | 00:00:00 | 00:00:00 | |
| EA3GEO | 2026-09-01 23:17:09 | 41.39351 | 2.20726 | 84° | 40km/h | 6119m | 5.4m/s | 0°C | 0% | 0hPa | 0V | 00:00:00 | 00:00:00 | 00:00:00 | |
| EA3GEO | 2026-09-01 23:17:02 | 41.39337 | 2.20638 | 75° | 49km/h | 6075m | 8.1m/s | 0°C | 0% | 0hPa | 0V | 00:00:00 | 00:00:00 | 00:00:00 | |
| EA3GEO | 2026-09-01 23:16:57 | 41.39323 | 2.20558 | 92° | 49km/h | 6031m | 6.8m/s | 0°C | 0% | 0hPa | 0V | 00:00:00 | 00:00:00 | 00:00:00 | |
| EA3GEO | 2026-09-01 23:16:51 | 41.39325 | 2.20469 | 96° | 35km/h | 6002m | 7.5m/s | 0°C | 0% | 0hPa | 0V | 00:00:00 | 00:00:00 | 00:00:00 | |
| EA3GEO | 2026-09-01 23:16:45 | 41.39326 | 2.20377 | 98° | 47km/h | 5964m | 6.6m/s | 0°C | 0% | 0hPa | 0V | 00:00:00 | 00:00:00 | 00:00:00 | |
| EA3GEO | 2026-09-01 23:16:39 | 41.39317 | 2.20269 | 71° | 53km/h | 5929m | 5.4m/s | 0°C | 0% | 0hPa | 0V | 00:00:00 | 00:00:00 | 00:00:00 | |
| EA3GEO | 2026-09-01 23:16:34 | 41.39306 | 2.20194 | 89° | 47km/h | 5902m | 8.6m/s | 0°C | 0% | 0hPa | 0V | 00:00:00 | 00:00:00 | 00:00:00 | |
| EA3GEO | 2026-09-01 23:16:28 | 41.39302 | 2.20100 | 102° | 42km/h | 5854m | 4.7m/s | 0°C | 0% | 0hPa | 0V | 00:00:00 | 00:00:00 | 00:00:00 | |
| EA3GEO | 2026-09-01 23:16:23 | 41.39306 | 2.20009 | 84° | 55km/h | 5825m | 5.4m/s | 0°C | 0% | 0hPa | 0V | 00:00:00 | 00:00:00 | 00:00:00 | |
| EA3GEO | 2026-09-01 23:16:17 | 41.39304 | 2.19916 | 80° | 47km/h | 5780m | 9.1m/s | 0°C | 0% | 0hPa | 0V | 00:00:00 | 00:00:00 | 00:00:00 | |
| EA3GEO | 2026-09-01 23:16:11 | 41.39294 | 2.19835 | 98° | 40km/h | 5751m | 4.8m/s | 0°C | 0% | 0hPa | 0V | 00:00:00 | 00:00:00 | 00:00:00 | |
| EA3GEO | 2026-09-01 23:16:05 | 41.39294 | 2.19714 | 82° | 60km/h | 5721m | 5.0m/s | 0°C | 0% | 0hPa | 0V | 00:00:00 | 00:00:00 | 00:00:00 | |
| EA3GEO | 2026-09-01 23:15:59 | 41.39285 | 2.19623 | 87° | 49km/h | 5674m | 8.2m/s | 0°C | 0% | 0hPa | 0V | 00:00:00 | 00:00:00 | 00:00:00 | |
| EA3GEO | 2026-09-01 23:15:54 | 41.39282 | 2.19547 | 91° | 42km/h | 5637m | 5.3m/s | 0°C | 0% | 0hPa | 0V | 00:00:00 | 00:00:00 | 00:00:00 | |
| EA3GEO | 2026-09-01 23:15:48 | 41.39284 | 2.19449 | 91° | 53km/h | 5597m | 2.9m/s | 0°C | 0% | 0hPa | 0V | 00:00:00 | 00:00:00 | 00:00:00 | |
| EA3GEO | 2026-09-01 23:15:42 | 41.39286 | 2.19346 | 97° | 40km/h | 5567m | 8.7m/s | 0°C | 0% | 0hPa | 0V | 00:00:00 | 00:00:00 | 00:00:00 | |
| EA3GEO | 2026-09-01 23:15:37 | 41.39286 | 2.19284 | 90° | 42km/h | 5537m | 3.2m/s | 0°C | 0% | 0hPa | 0V | 00:00:00 | 00:00:00 | 00:00:00 | |
| EA3GEO | 2026-09-01 23:15:31 | 41.39290 | 2.19196 | 105° | 42km/h | 5495m | 3.9m/s | 0°C | 0% | 0hPa | 0V | 00:00:00 | 00:00:00 | 00:00:00 | |
| EA3GEO | 2026-09-01 23:15:20 | 41.39294 | 2.19014 | 92° | 49km/h | 5429m | 5.6m/s | 0°C | 0% | 0hPa | 0V | 00:00:00 | 00:00:00 | 00:00:00 | |
| EA3GEO | 2026-09-01 23:15:15 | 41.39287 | 2.18921 | 92° | 49km/h | 5394m | 4.8m/s | 0°C | 0% | 0hPa | 0V | 00:00:00 | 00:00:00 | 00:00:00 | |
| EA3GEO | 2026-09-01 23:15:09 | 41.39287 | 2.18850 | 83° | 33km/h | 5362m | 6.6m/s | 0°C | 0% | 0hPa | 0V | 00:00:00 | 00:00:00 | 00:00:00 | |
| EA3GEO | 2026-09-01 23:15:04 | 41.39280 | 2.18783 | 87° | 47km/h | 5339m | 7.5m/s | 0°C | 0% | 0hPa | 0V | 00:00:00 | 00:00:00 | 00:00:00 | |
| EA3GEO | 2026-09-01 23:14:58 | 41.39280 | 2.18690 | 97° | 37km/h | 5300m | 4.1m/s | 0°C | 0% | 0hPa | 0V | 00:00:00 | 00:00:00 | 00:00:00 | |
| EA3GEO | 2026-09-01 23:14:52 | 41.39277 | 2.18596 | 94° | 44km/h | 5264m | 7.6m/s | 0°C | 0% | 0hPa | 0V | 00:00:00 | 00:00:00 | 00:00:00 | |
| EA3GEO | 2026-09-01 23:14:47 | 41.39283 | 2.18515 | 100° | 55km/h | 5237m | 2.6m/s | 0°C | 0% | 0hPa | 0V | 00:00:00 | 00:00:00 | 00:00:00 | |
| EA3GEO | 2026-09-01 23:14:42 | 41.39288 | 2.18430 | 85° | 66km/h | 5206m | 5.8m/s | 0°C | 0% | 0hPa | 0V | 00:00:00 | 00:00:00 | 00:00:00 | |
| EA3GEO | 2026-09-01 23:14:36 | 41.39284 | 2.18317 | 94° | 53km/h | 5165m | 6.3m/s | 0°C | 0% | 0hPa | 0V | 00:00:00 | 00:00:00 | 00:00:00 | |
| EA3GEO | 2026-09-01 23:14:26 | 41.39281 | 2.18161 | 79° | 49km/h | 5104m | 6.4m/s | 0°C | 0% | 0hPa | 0V | 00:00:00 | 00:00:00 | 00:00:00 | |
| EA3GEO | 2026-09-01 23:14:20 | 41.39269 | 2.18068 | 94° | 49km/h | 5063m | 7.4m/s | 0°C | 0% | 0hPa | 0V | 00:00:00 | 00:00:00 | 00:00:00 | |
| EA3GEO | 2026-09-01 23:14:15 | 41.39273 | 2.17993 | 99° | 46km/h | 5032m | 7.1m/s | 0°C | 0% | 0hPa | 0V | 00:00:00 | 00:00:00 | 00:00:00 | |
| EA3GEO | 2026-09-01 23:14:09 | 41.39267 | 2.17886 | 88° | 51km/h | 4996m | 3.8m/s | 0°C | 0% | 0hPa | 0V | 00:00:00 | 00:00:00 | 00:00:00 | |
| EA3GEO | 2026-09-01 23:14:04 | 41.39260 | 2.17804 | 81° | 46km/h | 4964m | 6.7m/s | 0°C | 0% | 0hPa | 0V | 00:00:00 | 00:00:00 | 00:00:00 | |
| EA3GEO | 2026-09-01 23:13:58 | 41.39246 | 2.17699 | 82° | 58km/h | 4924m | 4.9m/s | 0°C | 0% | 0hPa | 0V | 00:00:00 | 00:00:00 | 00:00:00 | |
| EA3GEO | 2026-09-01 23:13:53 | 41.39231 | 2.17593 | 81° | 55km/h | 4895m | 4.5m/s | 0°C | 0% | 0hPa | 0V | 00:00:00 | 00:00:00 | 00:00:00 | |
| EA3GEO | 2026-09-01 23:13:47 | 41.39227 | 2.17511 | 88° | 47km/h | 4848m | 5.8m/s | 0°C | 0% | 0hPa | 0V | 00:00:00 | 00:00:00 | 00:00:00 | |
| EA3GEO | 2026-09-01 23:13:42 | 41.39216 | 2.17434 | 80° | 57km/h | 4807m | 5.0m/s | 0°C | 0% | 0hPa | 0V | 00:00:00 | 00:00:00 | 00:00:00 | |
| EA3GEO | 2026-09-01 23:13:36 | 41.39230 | 2.17333 | 91° | 47km/h | 4778m | 5.7m/s | 0°C | 0% | 0hPa | 0V | 00:00:00 | 00:00:00 | 00:00:00 | |
| EA3GEO | 2026-09-01 23:13:25 | 41.39220 | 2.17177 | 73° | 29km/h | 4709m | 3.9m/s | 0°C | 0% | 0hPa | 0V | 00:00:00 | 00:00:00 | 00:00:00 | |
| EA3GEO | 2026-09-01 23:13:19 | 41.39227 | 2.17089 | 88° | 51km/h | 4671m | 4.4m/s | 0°C | 0% | 0hPa | 0V | 00:00:00 | 00:00:00 | 00:00:00 | |
| EA3GEO | 2026-09-01 23:13:14 | 41.39236 | 2.17023 | 99° | 22km/h | 4640m | 4.0m/s | 0°C | 0% | 0hPa | 0V | 00:00:00 | 00:00:00 | 00:00:00 | |
| EA3GEO | 2026-09-01 23:13:09 | 41.39232 | 2.16957 | 94° | 57km/h | 4611m | 6.4m/s | 0°C | 0% | 0hPa | 0V | 00:00:00 | 00:00:00 | 00:00:00 | |
| EA3GEO | 2026-09-01 23:13:03 | 41.39238 | 2.16866 | 106° | 44km/h | 4572m | 7.5m/s | 0°C | 0% | 0hPa | 0V | 00:00:00 | 00:00:00 | 00:00:00 | |
| EA3GEO | 2026-09-01 23:12:58 | 41.39253 | 2.16787 | 99° | 49km/h | 4547m | 5.0m/s | 0°C | 0% | 0hPa | 0V | 00:00:00 | 00:00:00 | 00:00:00 | |
| EA3GEO | 2026-09-01 23:12:52 | 41.39247 | 2.16716 | 104° | 38km/h | 4512m | 4.8m/s | 0°C | 0% | 0hPa | 0V | 00:00:00 | 00:00:00 | 00:00:00 | |
| EA3GEO | 2026-09-01 23:12:47 | 41.39243 | 2.16664 | 103° | 27km/h | 4477m | 4.7m/s | 0°C | 0% | 0hPa | 0V | 00:00:00 | 00:00:00 | 00:00:00 | |
| EA3GEO | 2026-09-01 23:12:41 | 41.39240 | 2.16606 | 98° | 22km/h | 4436m | 8.2m/s | 0°C | 0% | 0hPa | 0V | 00:00:00 | 00:00:00 | 00:00:00 | |
| EA3GEO | 2026-09-01 23:12:35 | 41.39235 | 2.16547 | 102° | 31km/h | 4389m | 5.4m/s | 0°C | 0% | 0hPa | 0V | 00:00:00 | 00:00:00 | 00:00:00 | |
| EA3GEO | 2026-09-01 23:12:30 | 41.39222 | 2.16486 | 85° | 33km/h | 4362m | 6.6m/s | 0°C | 0% | 0hPa | 0V | 00:00:00 | 00:00:00 | 00:00:00 | |
| EA3GEO | 2026-09-01 23:12:24 | 41.39216 | 2.16412 | 78° | 38km/h | 4319m | 5.5m/s | 0°C | 0% | 0hPa | 0V | 00:00:00 | 00:00:00 | 00:00:00 | |
| EA3GEO | 2026-09-01 23:12:18 | 41.39218 | 2.16353 | 81° | 47km/h | 4281m | 6.0m/s | 0°C | 0% | 0hPa | 0V | 00:00:00 | 00:00:00 | 00:00:00 | |
| EA3GEO | 2026-09-01 23:12:13 | 41.39203 | 2.16300 | 87° | 29km/h | 4246m | 5.3m/s | 0°C | 0% | 0hPa | 0V | 00:00:00 | 00:00:00 | 00:00:00 | |
| EA3GEO | 2026-09-01 23:12:07 | 41.39205 | 2.16227 | 71° | 20km/h | 4208m | 7.4m/s | 0°C | 0% | 0hPa | 0V | 00:00:00 | 00:00:00 | 00:00:00 | |
| EA3GEO | 2026-09-01 23:12:01 | 41.39195 | 2.16168 | 83° | 46km/h | 4176m | 6.5m/s | 0°C | 0% | 0hPa | 0V | 00:00:00 | 00:00:00 | 00:00:00 | |
| EA3GEO | 2026-09-01 23:11:56 | 41.39185 | 2.16123 | 55° | 27km/h | 4147m | 4.6m/s | 0°C | 0% | 0hPa | 0V | 00:00:00 | 00:00:00 | 00:00:00 | |
| EA3GEO | 2026-09-01 23:11:49 | 41.39168 | 2.16042 | 58° | 42km/h | 4103m | 5.7m/s | 0°C | 0% | 0hPa | 0V | 00:00:00 | 00:00:00 | 00:00:00 | |
| EA3GEO | 2026-09-01 23:11:44 | 41.39146 | 2.15986 | 88° | 33km/h | 4072m | 3.4m/s | 0°C | 0% | 0hPa | 0V | 00:00:00 | 00:00:00 | 00:00:00 | |
| EA3GEO | 2026-09-01 23:11:38 | 41.39136 | 2.15911 | 74° | 29km/h | 4042m | 3.1m/s | 0°C | 0% | 0hPa | 0V | 00:00:00 | 00:00:00 | 00:00:00 | |
| EA3GEO | 2026-09-01 23:11:33 | 41.39133 | 2.15861 | 94° | 47km/h | 4016m | 6.0m/s | 0°C | 0% | 0hPa | 0V | 00:00:00 | 00:00:00 | 00:00:00 | |
| EA3GEO | 2026-09-01 23:11:28 | 41.39130 | 2.15805 | 114° | 20km/h | 3985m | 2.5m/s | 0°C | 0% | 0hPa | 0V | 00:00:00 | 00:00:00 | 00:00:00 | |
| EA3GEO | 2026-09-01 23:11:22 | 41.39136 | 2.15730 | 72° | 44km/h | 3949m | 5.0m/s | 0°C | 0% | 0hPa | 0V | 00:00:00 | 00:00:00 | 00:00:00 | |
| EA3GEO | 2026-09-01 23:11:16 | 41.39131 | 2.15675 | 94° | 26km/h | 3921m | 3.2m/s | 0°C | 0% | 0hPa | 0V | 00:00:00 | 00:00:00 | 00:00:00 | |
| EA3GEO | 2026-09-01 23:11:10 | 41.39136 | 2.15603 | 99° | 33km/h | 3880m | 5.6m/s | 0°C | 0% | 0hPa | 0V | 00:00:00 | 00:00:00 | 00:00:00 | |
| EA3GEO | 2026-09-01 23:11:04 | 41.39142 | 2.15532 | 100° | 35km/h | 3849m | 6.7m/s | 0°C | 0% | 0hPa | 0V | 00:00:00 | 00:00:00 | 00:00:00 | |
| EA3GEO | 2026-09-01 23:10:58 | 41.39140 | 2.15451 | 93° | 35km/h | 3820m | 7.0m/s | 0°C | 0% | 0hPa | 0V | 00:00:00 | 00:00:00 | 00:00:00 | |
| EA3GEO | 2026-09-01 23:10:53 | 41.39138 | 2.15390 | 101° | 31km/h | 3787m | 7.7m/s | 0°C | 0% | 0hPa | 0V | 00:00:00 | 00:00:00 | 00:00:00 | |
| EA3GEO | 2026-09-01 23:10:47 | 41.39136 | 2.15320 | 99° | 27km/h | 3750m | 3.9m/s | 0°C | 0% | 0hPa | 0V | 00:00:00 | 00:00:00 | 00:00:00 | |
| EA3GEO | 2026-09-01 23:10:41 | 41.39138 | 2.15252 | 92° | 24km/h | 3716m | 5.4m/s | 0°C | 0% | 0hPa | 0V | 00:00:00 | 00:00:00 | 00:00:00 | |
| EA3GEO | 2026-09-01 23:10:35 | 41.39127 | 2.15181 | 61° | 40km/h | 3684m | 6.8m/s | 0°C | 0% | 0hPa | 0V | 00:00:00 | 00:00:00 | 00:00:00 | |
| EA3GEO | 2026-09-01 23:10:30 | 41.39125 | 2.15123 | 98° | 37km/h | 3652m | 5.0m/s | 0°C | 0% | 0hPa | 0V | 00:00:00 | 00:00:00 | 00:00:00 | |
| EA3GEO | 2026-09-01 23:10:25 | 41.39116 | 2.15063 | 89° | 31km/h | 3629m | 5.5m/s | 0°C | 0% | 0hPa | 0V | 00:00:00 | 00:00:00 | 00:00:00 | |
| EA3GEO | 2026-09-01 23:10:19 | 41.39118 | 2.14991 | 73° | 33km/h | 3599m | 6.1m/s | 0°C | 0% | 0hPa | 0V | 00:00:00 | 00:00:00 | 00:00:00 | |
| EA3GEO | 2026-09-01 23:10:14 | 41.39110 | 2.14938 | 74° | 33km/h | 3569m | 7.2m/s | 0°C | 0% | 0hPa | 0V | 00:00:00 | 00:00:00 | 00:00:00 | |
| EA3GEO | 2026-09-01 23:10:08 | 41.39099 | 2.14865 | 98° | 40km/h | 3530m | 4.7m/s | 0°C | 0% | 0hPa | 0V | 00:00:00 | 00:00:00 | 00:00:00 | |
| EA3GEO | 2026-09-01 23:10:02 | 41.39088 | 2.14787 | 95° | 40km/h | 3499m | 4.9m/s | 0°C | 0% | 0hPa | 0V | 00:00:00 | 00:00:00 | 00:00:00 | |
| EA3GEO | 2026-09-01 23:09:56 | 41.39079 | 2.14718 | 88° | 31km/h | 3464m | 6.0m/s | 0°C | 0% | 0hPa | 0V | 00:00:00 | 00:00:00 | 00:00:00 | |
| EA3GEO | 2026-09-01 23:09:50 | 41.39068 | 2.14651 | 80° | 37km/h | 3427m | 7.8m/s | 0°C | 0% | 0hPa | 0V | 00:00:00 | 00:00:00 | 00:00:00 | |
| EA3GEO | 2026-09-01 23:09:45 | 41.39054 | 2.14588 | 84° | 35km/h | 3395m | 4.8m/s | 0°C | 0% | 0hPa | 0V | 00:00:00 | 00:00:00 | 00:00:00 | |
| EA3GEO | 2026-09-01 23:09:39 | 41.39044 | 2.14527 | 84° | 40km/h | 3359m | 5.9m/s | 0°C | 0% | 0hPa | 0V | 00:00:00 | 00:00:00 | 00:00:00 | |
| EA3GEO | 2026-09-01 23:09:34 | 41.39032 | 2.14472 | 102° | 27km/h | 3328m | 6.5m/s | 0°C | 0% | 0hPa | 0V | 00:00:00 | 00:00:00 | 00:00:00 | |
| EA3GEO | 2026-09-01 23:09:29 | 41.39023 | 2.14416 | 74° | 22km/h | 3300m | 6.0m/s | 0°C | 0% | 0hPa | 0V | 00:00:00 | 00:00:00 | 00:00:00 | |
| EA3GEO | 2026-09-01 23:09:23 | 41.39013 | 2.14361 | 79° | 27km/h | 3262m | 4.1m/s | 0°C | 0% | 0hPa | 0V | 00:00:00 | 00:00:00 | 00:00:00 | |
| EA3GEO | 2026-09-01 23:09:18 | 41.38997 | 2.14307 | 44° | 27km/h | 3234m | 3.4m/s | 0°C | 0% | 0hPa | 0V | 00:00:00 | 00:00:00 | 00:00:00 | |
| EA3GEO | 2026-09-01 23:09:12 | 41.38996 | 2.14263 | 67° | 26km/h | 3202m | 6.3m/s | 0°C | 0% | 0hPa | 0V | 00:00:00 | 00:00:00 | 00:00:00 | |
| EA3GEO | 2026-09-01 23:09:06 | 41.38979 | 2.14206 | 88° | 33km/h | 3164m | 6.4m/s | 0°C | 0% | 0hPa | 0V | 00:00:00 | 00:00:00 | 00:00:00 | |
| EA3GEO | 2026-09-01 23:09:00 | 41.38973 | 2.14156 | 57° | 33km/h | 3125m | 4.0m/s | 0°C | 0% | 0hPa | 0V | 00:00:00 | 00:00:00 | 00:00:00 | |
| EA3GEO | 2026-09-01 23:08:55 | 41.38958 | 2.14117 | 72° | 24km/h | 3096m | 5.5m/s | 0°C | 0% | 0hPa | 0V | 00:00:00 | 00:00:00 | 00:00:00 | |
| EA3GEO | 2026-09-01 23:08:49 | 41.38952 | 2.14080 | 70° | 31km/h | 3066m | 7.8m/s | 0°C | 0% | 0hPa | 0V | 00:00:00 | 00:00:00 | 00:00:00 | |
| EA3GEO | 2026-09-01 23:08:43 | 41.38945 | 2.14037 | 87° | 24km/h | 3030m | 5.2m/s | 0°C | 0% | 0hPa | 0V | 00:00:00 | 00:00:00 | 00:00:00 | |
| EA3GEO | 2026-09-01 23:08:37 | 41.38936 | 2.13992 | 80° | 31km/h | 3000m | 6.0m/s | 0°C | 0% | 0hPa | 0V | 00:00:00 | 00:00:00 | 00:00:00 | |
| EA3GEO | 2026-09-01 23:08:31 | 41.38936 | 2.13951 | 107° | 26km/h | 2961m | 5.6m/s | 0°C | 0% | 0hPa | 0V | 00:00:00 | 00:00:00 | 00:00:00 | |
| EA3GEO | 2026-09-01 23:08:26 | 41.38932 | 2.13921 | 83° | 27km/h | 2934m | 4.8m/s | 0°C | 0% | 0hPa | 0V | 00:00:00 | 00:00:00 | 00:00:00 | |
| EA3GEO | 2026-09-01 23:08:20 | 41.38926 | 2.13878 | 91° | 27km/h | 2903m | 4.4m/s | 0°C | 0% | 0hPa | 0V | 00:00:00 | 00:00:00 | 00:00:00 | |
| EA3GEO | 2026-09-01 23:08:09 | 41.38925 | 2.13817 | 67° | 18km/h | 2844m | 4.4m/s | 0°C | 0% | 0hPa | 0V | 00:00:00 | 00:00:00 | 00:00:00 | |
| EA3GEO | 2026-09-01 23:08:04 | 41.38923 | 2.13783 | 77° | 22km/h | 2812m | 4.4m/s | 0°C | 0% | 0hPa | 0V | 00:00:00 | 00:00:00 | 00:00:00 | |
| EA3GEO | 2026-09-01 23:07:58 | 41.38913 | 2.13743 | 87° | 18km/h | 2777m | 4.7m/s | 0°C | 0% | 0hPa | 0V | 00:00:00 | 00:00:00 | 00:00:00 | |
| EA3GEO | 2026-09-01 23:07:52 | 41.38908 | 2.13699 | 84° | 26km/h | 2744m | 4.3m/s | 0°C | 0% | 0hPa | 0V | 00:00:00 | 00:00:00 | 00:00:00 | |
| EA3GEO | 2026-09-01 23:07:47 | 41.38896 | 2.13663 | 80° | 20km/h | 2716m | 5.7m/s | 0°C | 0% | 0hPa | 0V | 00:00:00 | 00:00:00 | 00:00:00 | |
| EA3GEO | 2026-09-01 23:07:41 | 41.38884 | 2.13624 | 84° | 20km/h | 2681m | 1.8m/s | 0°C | 0% | 0hPa | 0V | 00:00:00 | 00:00:00 | 00:00:00 | |
| EA3GEO | 2026-09-01 23:07:35 | 41.38864 | 2.13577 | 47° | 31km/h | 2646m | 3.5m/s | 0°C | 0% | 0hPa | 0V | 00:00:00 | 00:00:00 | 00:00:00 | |
| EA3GEO | 2026-09-01 23:07:29 | 41.38844 | 2.13538 | 105° | 16km/h | 2612m | 5.7m/s | 0°C | 0% | 0hPa | 0V | 00:00:00 | 00:00:00 | 00:00:00 | |
| EA3GEO | 2026-09-01 23:07:24 | 41.38835 | 2.13506 | 69° | 13km/h | 2582m | 5.6m/s | 0°C | 0% | 0hPa | 0V | 00:00:00 | 00:00:00 | 00:00:00 | |
| EA3GEO | 2026-09-01 23:07:18 | 41.38834 | 2.13476 | 125° | 16km/h | 2548m | 4.2m/s | 0°C | 0% | 0hPa | 0V | 00:00:00 | 00:00:00 | 00:00:00 | |
| EA3GEO | 2026-09-01 23:07:12 | 41.38823 | 2.13453 | 62° | 9km/h | 2512m | 5.9m/s | 0°C | 0% | 0hPa | 0V | 00:00:00 | 00:00:00 | 00:00:00 | |
| EA3GEO | 2026-09-01 23:07:07 | 41.38815 | 2.13426 | 70° | 22km/h | 2484m | 4.5m/s | 0°C | 0% | 0hPa | 0V | 00:00:00 | 00:00:00 | 00:00:00 | |
| EA3GEO | 2026-09-01 23:07:01 | 41.38812 | 2.13389 | 74° | 13km/h | 2447m | 6.2m/s | 0°C | 0% | 0hPa | 0V | 00:00:00 | 00:00:00 | 00:00:00 | |
| EA3GEO | 2026-09-01 23:06:56 | 41.38812 | 2.13364 | 122° | 13km/h | 2418m | 5.0m/s | 0°C | 0% | 0hPa | 0V | 00:00:00 | 00:00:00 | 00:00:00 | |
| EA3GEO | 2026-09-01 23:06:50 | 41.38812 | 2.13316 | 106° | 18km/h | 2384m | 4.3m/s | 0°C | 0% | 0hPa | 0V | 00:00:00 | 00:00:00 | 00:00:00 | |
| EA3GEO | 2026-09-01 23:06:45 | 41.38812 | 2.13290 | 69° | 16km/h | 2352m | 3.9m/s | 0°C | 0% | 0hPa | 0V | 00:00:00 | 00:00:00 | 00:00:00 | |
| EA3GEO | 2026-09-01 23:06:39 | 41.38817 | 2.13255 | 81° | 18km/h | 2316m | 5.0m/s | 0°C | 0% | 0hPa | 0V | 00:00:00 | 00:00:00 | 00:00:00 | |
| EA3GEO | 2026-09-01 23:06:34 | 41.38815 | 2.13222 | 66° | 22km/h | 2290m | 4.3m/s | !°C | 0% | 0hPa | 0V | 00:00:00 | 00:00:00 | 00:00:00 | |
| EA3GEO | 2026-09-01 23:06:28 | 41.38812 | 2.13186 | 50° | 18km/h | 2255m | 3.6m/s | 0°C | 0% | 0hPa | 0V | 00:00:00 | 00:00:00 | 00:00:00 | |
| EA3GEO | 2026-09-01 23:06:23 | 41.38808 | 2.13165 | 84° | 24km/h | 2231m | 3.9m/s | 0°C | 0% | 0hPa | 0V | 00:00:00 | 00:00:00 | 00:00:00 | |
| EA3GEO | 2026-09-01 23:06:17 | 41.38797 | 2.13126 | 65° | 24km/h | 2195m | 4.0m/s | 0°C | 0% | 0hPa | 0V | 00:00:00 | 00:00:00 | 00:00:00 | |
| EA3GEO | 2026-09-01 23:06:11 | 41.38787 | 2.13087 | 80° | 24km/h | 2164m | 4.9m/s | 0°C | 0% | 0hPa | 0V | 00:00:00 | 00:00:00 | 00:00:00 | |
| EA3GEO | 2026-09-01 23:06:06 | 41.38782 | 2.13056 | 52° | 24km/h | 2136m | 5.7m/s | 0°C | 0% | 0hPa | 0V | 00:00:00 | 00:00:00 | 00:00:00 | |
| EA3GEO | 2026-09-01 23:06:00 | 41.38762 | 2.13023 | 85° | 27km/h | 2106m | 2.7m/s | 0°C | 0% | 0hPa | 0V | 00:00:00 | 00:00:00 | 00:00:00 | |
| EA3GEO | 2026-09-01 23:05:54 | 41.38756 | 2.12984 | 81° | 20km/h | 2071m | 4.5m/s | 0°C | 0% | 0hPa | 0V | 00:00:00 | 00:00:00 | 00:00:00 | |
| EA3GEO | 2026-09-01 23:05:49 | 41.38751 | 2.12947 | 70° | 29km/h | 2040m | 5.5m/s | 0°C | 0% | 0hPa | 0V | 00:00:00 | 00:00:00 | 00:00:00 | |
| EA3GEO | 2026-09-01 23:05:43 | 41.38740 | 2.12900 | 69° | 37km/h | 2009m | 6.4m/s | 0°C | 0% | 0hPa | 0V | 00:00:00 | 00:00:00 | 00:00:00 | |
| EA3GEO | 2026-09-01 23:05:37 | 41.38728 | 2.12849 | 72° | 33km/h | 1971m | 4.6m/s | 0°C | 0% | 0hPa | 0V | 00:00:00 | 00:00:00 | 00:00:00 | |
| EA3GEO | 2026-09-01 23:05:31 | 41.38712 | 2.12791 | 64° | 29km/h | 1933m | 5.7m/s | 0°C | 0% | 0hPa | 0V | 00:00:00 | 00:00:00 | 00:00:00 | |
| EA3GEO | 2026-09-01 23:05:26 | 41.38702 | 2.12749 | 75° | 22km/h | 1905m | 5.3m/s | 0°C | 0% | 0hPa | 0V | 00:00:00 | 00:00:00 | 00:00:00 | |
| EA3GEO | 2026-09-01 23:05:21 | 41.38690 | 2.12704 | 60° | 24km/h | 1879m | 5.7m/s | 0°C | 0% | 0hPa | 0V | 00:00:00 | 00:00:00 | 00:00:00 | |
| EA3GEO | 2026-09-01 23:05:16 | 41.38681 | 2.12664 | 84° | 18km/h | 1847m | 4.4m/s | 0°C | 0% | 0hPa | 0V | 00:00:00 | 00:00:00 | 00:00:00 | |
| EA3GEO | 2026-09-01 23:05:10 | 41.38668 | 2.12603 | 61° | 27km/h | 1813m | 4.2m/s | 0°C | 0% | 0hPa | 0V | 00:00:00 | 00:00:00 | 00:00:00 | |
| EA3GEO | 2026-09-01 23:05:04 | 41.38653 | 2.12555 | 85° | 22km/h | 1779m | 5.8m/s | 0°C | 0% | 0hPa | 0V | 00:00:00 | 00:00:00 | 00:00:00 | |
| EA3GEO | 2026-09-01 23:04:59 | 41.38647 | 2.12499 | 78° | 27km/h | 1749m | 4.9m/s | 0°C | 0% | 0hPa | 0V | 00:00:00 | 00:00:00 | 00:00:00 | |
| EA3GEO | 2026-09-01 23:04:54 | 41.38629 | 2.12455 | 55° | 18km/h | 1718m | 4.7m/s | 0°C | 0% | 0hPa | 0V | 00:00:00 | 00:00:00 | 00:00:00 | |
| EA3GEO | 2026-09-01 23:04:48 | 41.38623 | 2.12399 | 83° | 35km/h | 1682m | 6.0m/s | 0°C | 0% | 0hPa | 0V | 00:00:00 | 00:00:00 | 00:00:00 | |
| EA3GEO | 2026-09-01 23:04:43 | 41.38613 | 2.12345 | 81° | 35km/h | 1649m | 7.4m/s | 0°C | 0% | 0hPa | 0V | 00:00:00 | 00:00:00 | 00:00:00 | |
| EA3GEO | 2026-09-01 23:04:37 | 41.38610 | 2.12298 | 72° | 20km/h | 1615m | 3.1m/s | 0°C | 0% | 0hPa | 0V | 00:00:00 | 00:00:00 | 00:00:00 | |
| EA3GEO | 2026-09-01 23:04:32 | 41.38599 | 2.12265 | 58° | 29km/h | 1590m | 3.6m/s | 0°C | 0% | 0hPa | 0V | 00:00:00 | 00:00:00 | 00:00:00 | |
| EA3GEO | 2026-09-01 23:04:26 | 41.38592 | 2.12225 | 92° | 22km/h | 1555m | 3.5m/s | 0°C | 0% | 0hPa | 0V | 00:00:00 | 00:00:00 | 00:00:00 | |
| EA3GEO | 2026-09-01 23:04:21 | 41.38592 | 2.12195 | 95° | 20km/h | 1529m | 5.1m/s | 0°C | 0% | 0hPa | 0V | 00:00:00 | 00:00:00 | 00:00:00 | |
| EA3GEO | 2026-09-01 23:04:15 | 41.38595 | 2.12164 | 93° | 18km/h | 1500m | 4.8m/s | 0°C | 0% | 0hPa | 0V | 00:00:00 | 00:00:00 | 00:00:00 | |
| EA3GEO | 2026-09-01 23:04:10 | 41.38601 | 2.12140 | 107° | 18km/h | 1470m | 5.2m/s | 0°C | 0% | 0hPa | 0V | 00:00:00 | 00:00:00 | 00:00:00 | |
| EA3GEO | 2026-09-01 23:04:05 | 41.38602 | 2.12126 | 113° | 9km/h | 1439m | 3.7m/s | 0°C | 0% | 0hPa | 0V | 00:00:00 | 00:00:00 | 00:00:00 | |
| EA3GEO | 2026-09-01 23:03:59 | 41.38607 | 2.12112 | 146° | 11km/h | 1402m | 4.3m/s | 0°C | 0% | 0hPa | 0V | 00:00:00 | 00:00:00 | 00:00:00 | |
| EA3GEO | 2026-09-01 23:03:53 | 41.38615 | 2.12101 | 196° | 5km/h | 1366m | 5.4m/s | 0°C | 0% | 0hPa | 0V | 00:00:00 | 00:00:00 | 00:00:00 | |
| EA3GEO | 2026-09-01 23:03:48 | 41.38621 | 2.12094 | 136° | 7km/h | 1337m | 5.6m/s | 0°C | 0% | 0hPa | 0V | 00:00:00 | 00:00:00 | 00:00:00 | |
| EA3GEO | 2026-09-01 23:03:42 | 41.38626 | 2.12101 | 293° | 7km/h | 1302m | 5.4m/s | 0°C | 0% | 0hPa | 0V | 00:00:00 | 00:00:00 | 00:00:00 | |
| EA3GEO | 2026-09-01 23:03:36 | 41.38629 | 2.12102 | 229° | 13km/h | 1267m | 3.8m/s | 0°C | 0% | 0hPa | 0V | 00:00:00 | 00:00:00 | 00:00:00 | |
| EA3GEO | 2026-09-01 23:03:30 | 41.38635 | 2.12108 | 248° | 4km/h | 1231m | 7.0m/s | 0°C | 0% | 0hPa | 0V | 00:00:00 | 00:00:00 | 00:00:00 | |
| EA3GEO | 2026-09-01 23:03:25 | 41.38634 | 2.12113 | 201° | 9km/h | 1202m | 6.8m/s | 0°C | 0% | 0hPa | 0V | 00:00:00 | 00:00:00 | 00:00:00 | |
| EA3GEO | 2026-09-01 23:03:19 | 41.38638 | 2.12110 | 54° | 7km/h | 1163m | 4.5m/s | 0°C | 0% | 0hPa | 0V | 00:00:00 | 00:00:00 | 00:00:00 | |
| EA3GEO | 2026-09-01 23:03:13 | 41.38635 | 2.12106 | 4° | 11km/h | 1126m | 5.5m/s | 0°C | 0% | 0hPa | 0V | 00:00:00 | 00:00:00 | 00:00:00 | |
| EA3GEO | 2026-09-01 23:03:07 | 41.38633 | 2.12098 | 43° | 4km/h | 1091m | 4.4m/s | 0°C | 0% | 0hPa | 0V | 00:00:00 | 00:00:00 | 00:00:00 | |
| EA3GEO | 2026-09-01 23:03:02 | 41.38634 | 2.12092 | 0° | 0km/h | 1060m | 5.0m/s | 0°C | 0% | 0hPa | 0V | 00:00:00 | 00:00:00 | 00:00:00 | |
| EA3GEO | 2026-09-01 23:02:56 | 41.38633 | 2.12097 | 198° | 4km/h | 1028m | 5.4m/s | 0°C | 0% | 0hPa | 0V | 00:00:00 | 00:00:00 | 00:00:00 | |
| EA3GEO | 2026-09-01 23:02:51 | 41.38636 | 2.12095 | 296° | 4km/h | 998m | 4.7m/s | 0°C | 0% | 0hPa | 0V | 00:00:00 | 00:00:00 | 00:00:00 | |
| EA3GEO | 2026-09-01 23:02:45 | 41.38635 | 2.12098 | 310° | 7km/h | 963m | 4.7m/s | 0°C | 0% | 0hPa | 0V | 00:00:00 | 00:00:00 | 00:00:00 | |
| EA3GEO | 2026-09-01 23:02:40 | 41.38626 | 2.12096 | 0° | 0km/h | 935m | 4.5m/s | 0°C | 0% | 0hPa | 0V | 00:00:00 | 00:00:00 | 00:00:00 | |
| EA3GEO | 2026-09-01 23:02:34 | 41.38628 | 2.12082 | 84° | 9km/h | 899m | 6.5m/s | 0°C | 0% | 0hPa | 0V | 00:00:00 | 00:00:00 | 00:00:00 | |
| EA3GEO | 2026-09-01 23:02:29 | 41.38628 | 2.12076 | 98° | 11km/h | 869m | 4.9m/s | 0°C | 0% | 0hPa | 0V | 00:00:00 | 00:00:00 | 00:00:00 | |
| EA3GEO | 2026-09-01 23:02:24 | 41.38630 | 2.12070 | 117° | 11km/h | 841m | 6.6m/s | 0°C | 0% | 0hPa | 0V | 00:00:00 | 00:00:00 | 00:00:00 | |
| EA3GEO | 2026-09-01 23:02:19 | 41.38630 | 2.12064 | 91° | 9km/h | 811m | 5.0m/s | 0°C | 0% | 0hPa | 0V | 00:00:00 | 00:00:00 | 00:00:00 | |
| EA3GEO | 2026-09-01 23:02:13 | 41.38631 | 2.12054 | 129° | 9km/h | 774m | 7.3m/s | 0°C | 0% | 0hPa | 0V | 00:00:00 | 00:00:00 | 00:00:00 | |
| EA3GEO | 2026-09-01 23:02:07 | 41.38634 | 2.12045 | 238° | 4km/h | 738m | 4.1m/s | 0°C | 0% | 0hPa | 0V | 00:00:00 | 00:00:00 | 00:00:00 | |
| EA3GEO | 2026-09-01 23:02:01 | 41.38633 | 2.12047 | 314° | 2km/h | 705m | 6.9m/s | 0°C | 0% | 0hPa | 0V | 00:00:00 | 00:00:00 | 00:00:00 | |
| EA3GEO | 2026-09-01 23:01:55 | 41.38629 | 2.12049 | 57° | 7km/h | 668m | 4.4m/s | 0°C | 0% | 0hPa | 0V | 00:00:00 | 00:00:00 | 00:00:00 | |
| EA3GEO | 2026-09-01 23:01:50 | 41.38627 | 2.12043 | 76° | 15km/h | 642m | 5.3m/s | 0°C | 0% | 0hPa | 0V | 00:00:00 | 00:00:00 | 00:00:00 | |
| EA3GEO | 2026-09-01 23:01:44 | 41.38621 | 2.12024 | 47° | 15km/h | 609m | 6.2m/s | 0°C | 0% | 0hPa | 0V | 00:00:00 | 00:00:00 | 00:00:00 | |
| EA3GEO | 2026-09-01 23:01:38 | 41.38611 | 2.12011 | 65° | 15km/h | 573m | 2.9m/s | 0°C | 0% | 0hPa | 0V | 00:00:00 | 00:00:00 | 00:00:00 | |
| EA3GEO | 2026-09-01 23:01:33 | 41.38604 | 2.11993 | 30° | 15km/h | 544m | 6.6m/s | 0°C | 0% | 0hPa | 0V | 00:00:00 | 00:00:00 | 00:00:00 | |
| EA3GEO | 2026-09-01 23:01:27 | 41.38587 | 2.11974 | 30° | 18km/h | 510m | 3.2m/s | 0°C | 0% | 0hPa | 0V | 00:00:00 | 00:00:00 | 00:00:00 | |
| EA3GEO | 2026-09-01 23:01:22 | 41.38571 | 2.11953 | 45° | 22km/h | 482m | 2.7m/s | 0°C | 0% | 0hPa | 0V | 00:00:00 | 00:00:00 | 00:00:00 | |
| EA3GEO | 2026-09-01 23:01:17 | 41.38558 | 2.11933 | 50° | 20km/h | 452m | 4.5m/s | 0°C | 0% | 0hPa | 0V | 00:00:00 | 00:00:00 | 00:00:00 | |
| EA3GEO | 2026-09-01 23:01:11 | 41.38544 | 2.11911 | 68° | 13km/h | 418m | 5.3m/s | 0°C | 0% | 0hPa | 0V | 00:00:00 | 00:00:00 | 00:00:00 | |
| EA3GEO | 2026-09-01 23:01:06 | 41.38531 | 2.11896 | 49° | 18km/h | 391m | 5.2m/s | 0°C | 0% | 0hPa | 0V | 00:00:00 | 00:00:00 | 00:00:00 | |
| EA3GEO | 2026-09-01 23:01:00 | 41.38518 | 2.11877 | 87° | 13km/h | 359m | 4.6m/s | 0°C | 0% | 0hPa | 0V | 00:00:00 | 00:00:00 | 00:00:00 | |
| EA3GEO | 2026-09-01 23:00:54 | 41.38497 | 2.11856 | 78° | 18km/h | 327m | 5.2m/s | 0°C | 0% | 0hPa | 0V | 00:00:00 | 00:00:00 | 00:00:00 | |
| EA3GEO | 2026-09-01 23:00:45 | 41.38479 | 2.11822 | 73° | 9km/h | 280m | 3.5m/s | 0°C | 0% | 0hPa | 0V | 00:00:00 | 00:00:00 | 00:00:00 |